GFSFLT1_850_thetae_000.txt.gz
Theta_e
318 317 316 315 314 313 311 311 310 309 309 308 309 308 308 309 309 309 308 306 304 304 306 305 305 305 305 305 304 303 303 303
317 317 316 315 313 312 311 310 309 308 308 308 307 307 308 308 308 307 307 307 306 305 305 305 305 305 304 304 304 304 303 303
317 317 316 315 313 312 311 310 309 309 308 307 307 307 307 308 307 307 307 306 306 305 305 304 304 304 304 304 304 304 303 303
315 315 315 315 314 313 312 311 310 309 308 308 307 307 307 307 306 306 306 305 306 306 306 305 304 304 304 304 303 303 303 304
316 315 314 314 314 313 313 312 311 310 309 308 307 307 306 306 305 305 305 306 306 306 305 305 304 303 303 302 303 303 303 302
316 315 315 314 313 313 313 312 311 311 310 309 308 307 306 306 306 305 305 305 304 304 304 304 303 303 302 301 301 299 300 301
315 316 315 315 314 313 312 312 312 312 311 310 308 307 306 306 305 305 305 304 304 303 302 302 301 301 301 299 298 299 299 298
316 315 315 315 314 314 313 313 312 312 311 311 309 307 306 305 304 304 303 303 302 301 300 300 299 299 296 294 294 293 293 294
316 316 316 315 315 314 314 313 312 312 312 311 310 309 307 305 305 304 303 301 300 300 298 297 295 294 293 293 292 292 292 294
317 316 316 315 314 314 314 314 313 313 312 311 311 308 306 305 304 302 301 299 297 296 295 295 295 293 292 293 292 292 294 294
316 316 315 314 314 314 312 312 311 310 310 309 308 306 305 304 301 299 297 297 297 295 295 294 292 291 291 291 292 292 293 293
316 315 314 314 313 312 311 310 309 308 308 307 306 304 303 301 299 296 297 295 294 294 294 292 291 291 291 291 292 292 292 292
314 313 313 313 312 311 310 309 306 306 305 303 302 301 299 297 295 295 295 294 295 293 292 292 292 291 291 291 291 291 291 291
314 313 313 312 311 311 310 307 305 304 302 300 298 297 296 295 295 296 296 294 293 292 292 292 291 291 290 290 290 290 290 290
313 312 312 311 310 309 309 305 304 303 300 298 297 296 296 296 295 294 293 293 292 292 292 291 289 289 289 289 289 289 289 289
313 312 311 310 310 308 307 304 303 301 299 298 297 297 297 296 295 294 293 292 292 291 290 289 289 289 289 289 289 288 288 288
311 310 309 309 308 308 304 302 301 300 298 298 299 298 296 295 294 293 292 292 291 289 289 288 288 288 288 288 288 288 287 287
311 309 308 308 307 305 304 301 301 300 300 300 297 297 295 294 293 292 292 291 289 288 288 288 288 287 287 287 287 286 286 285
309 308 308 307 306 305 304 302 301 300 299 297 297 295 294 293 292 292 290 289 288 287 287 287 287 286 286 285 284 284 284 285

GFSFLT1_850_thetae_003.txt.gz
Theta_e
317 317 317 316 316 315 314 313 312 311 310 310 309 309 309 308 310 311 309 307 306 304 307 306 306 305 305 305 304 303 303 303
317 317 316 316 315 314 313 312 311 310 310 309 308 308 307 307 308 308 309 309 308 306 305 306 305 305 305 304 303 304 303 302
316 316 316 315 315 314 313 312 311 310 310 310 309 308 307 307 307 308 308 307 307 306 305 305 305 304 304 303 303 304 303 303
315 315 315 314 314 314 314 313 312 311 310 309 309 308 307 307 308 308 307 307 307 306 306 306 305 305 304 304 303 302 303 304
315 315 315 314 314 314 313 313 313 312 311 310 309 309 308 307 307 307 306 306 306 306 306 306 305 304 303 302 302 302 302 301
315 315 315 315 314 314 313 313 313 313 313 312 311 310 309 308 307 306 306 306 306 307 306 306 305 304 303 303 302 301 301 297
316 315 315 315 315 314 314 314 314 314 313 313 312 311 310 309 308 306 306 305 305 306 305 304 303 303 302 301 300 299 295 296
316 316 316 315 315 315 315 314 314 314 314 314 313 312 311 310 309 307 306 305 304 303 301 301 300 300 300 300 298 296 296 293
317 317 316 316 315 314 314 314 313 313 312 312 312 312 311 311 310 307 305 305 303 301 301 301 299 297 299 298 296 293 292 292
317 316 316 315 315 314 313 313 312 311 310 310 310 309 308 310 307 305 304 302 300 299 299 296 296 298 298 294 293 291 292 292
315 315 314 314 314 313 313 312 311 309 308 307 307 307 307 307 304 302 301 300 299 298 297 298 297 294 293 292 291 291 292 292
313 313 314 313 313 312 312 311 308 307 305 305 305 305 304 304 302 299 299 301 297 297 297 294 293 292 292 291 292 292 292 291
313 313 312 312 311 311 310 309 308 305 303 304 304 303 302 300 298 297 296 295 295 295 294 292 292 292 292 292 291 291 291 291
313 313 312 311 310 309 309 307 306 305 303 302 302 300 298 297 295 294 295 295 295 293 292 292 292 292 291 290 289 289 289 289
313 312 311 310 310 308 308 307 307 305 302 301 299 297 296 295 295 295 295 294 293 292 292 292 291 290 289 289 289 289 289 289
311 310 310 309 308 308 308 307 306 305 301 299 296 296 295 296 296 296 295 293 292 292 292 291 290 289 289 289 289 289 289 288
310 309 309 307 307 308 308 306 305 302 300 298 298 298 299 298 297 295 293 293 292 292 291 289 288 288 288 288 288 287 288 287
310 309 307 307 307 307 305 302 302 303 301 300 300 300 298 295 294 293 293 292 292 290 289 288 287 287 287 287 287 286 285 285
310 307 306 307 306 304 301 301 301 301 300 298 297 296 296 294 294 293 292 291 289 288 287 286 287 287 286 285 284 283 283 283

GFSFLT1_850_thetae_006.txt.gz
Theta_e
317 317 317 317 316 316 315 314 313 312 311 311 310 309 309 309 309 309 307 309 310 307 305 305 306 306 305 305 304 303 302 302
316 317 317 316 316 315 315 313 313 312 312 311 311 310 309 308 308 307 308 309 308 307 307 305 306 305 305 305 304 303 302 302
316 316 316 316 315 314 314 314 313 313 312 312 311 311 310 309 308 307 307 308 308 308 307 307 305 305 304 304 304 303 303 302
315 315 315 315 314 314 314 313 313 313 313 312 311 311 310 310 309 308 307 307 307 307 307 307 306 305 304 304 304 303 303 302
315 315 314 314 314 314 313 313 313 313 313 313 312 312 311 312 311 309 308 307 307 307 307 307 306 305 304 304 303 303 302 302
315 315 315 314 314 314 313 313 313 313 314 314 313 313 313 312 311 310 308 307 306 305 306 307 306 306 304 303 303 303 302 299
315 315 315 315 315 315 314 314 314 313 313 313 312 311 311 313 313 312 310 308 306 306 306 306 306 305 305 304 303 302 301 300
315 316 315 315 315 315 314 314 314 314 314 312 311 310 309 310 310 310 310 307 307 306 306 305 303 301 302 301 300 300 299 299
316 316 315 315 314 314 314 314 313 313 312 311 309 308 308 307 307 307 308 307 304 302 300 299 299 300 301 299 299 300 299 294
316 315 314 314 313 313 312 312 311 310 309 308 307 306 307 305 305 305 307 304 301 298 299 301 300 300 299 299 296 295 293 293
313 313 313 313 312 312 312 311 309 308 307 307 306 304 304 304 304 303 302 299 299 300 300 299 299 295 294 294 293 292 291 291
313 313 312 312 311 310 309 308 308 307 306 306 305 304 303 303 302 300 299 298 300 301 297 295 294 293 292 292 292 292 292 292
313 313 312 309 308 308 308 306 306 306 306 305 304 302 301 300 300 299 297 296 295 295 293 292 292 292 292 292 292 290 289 288
313 311 310 309 308 307 306 306 307 307 306 303 302 300 299 298 297 296 295 295 295 293 292 291 291 292 291 290 290 289 289 288
311 310 309 309 307 307 306 307 307 306 304 302 299 297 296 294 294 294 295 295 295 293 292 292 292 291 291 289 288 288 288 288
310 309 308 309 306 305 306 307 305 303 301 301 297 296 295 295 296 295 296 295 293 293 292 292 291 290 288 288 287 287 288 288
308 308 309 308 306 306 306 304 301 300 301 301 298 297 296 297 298 295 294 293 293 293 292 291 289 288 287 286 287 287 287 286
309 310 309 306 305 305 304 301 299 299 299 299 299 298 297 295 295 294 293 292 292 291 289 288 287 286 286 286 286 285 285 284
309 310 308 307 304 303 301 299 298 298 297 298 298 297 296 294 292 292 292 291 289 288 287 286 285 285 285 285 285 284 283 283

GFSFLT1_850_thetae_009.txt.gz
Theta_e
317 317 317 318 317 316 316 314 312 313 312 312 312 312 311 310 310 310 309 308 308 309 309 308 306 305 305 305 305 305 304 303
316 316 316 316 316 315 314 314 314 313 313 312 312 312 312 311 311 310 309 309 308 307 307 307 307 306 306 305 305 304 304 303
316 316 316 315 315 315 314 314 314 313 313 313 313 313 312 312 312 311 310 309 309 308 307 307 307 307 306 306 305 305 304 303
315 315 315 314 314 314 314 314 313 313 313 313 313 313 312 312 312 312 312 311 309 308 307 307 307 307 307 306 305 304 304 303
315 315 315 314 314 314 314 313 313 313 313 313 313 313 313 312 311 310 311 312 310 308 307 307 307 308 306 305 304 304 304 303
315 315 314 314 314 314 313 313 313 313 314 313 313 314 312 311 309 309 310 311 311 308 307 307 308 307 306 305 303 304 303 302
315 315 315 315 314 314 314 314 314 313 313 314 313 312 311 310 309 308 307 307 308 308 308 306 308 307 305 303 301 301 299 299
315 315 314 314 314 314 313 313 313 312 312 311 311 309 308 307 307 306 305 305 305 307 306 305 306 305 304 300 297 298 300 299
315 315 314 314 313 313 312 312 312 312 311 310 308 307 306 306 306 305 304 304 305 304 304 304 302 300 297 298 298 299 300 299
314 313 313 313 312 312 311 311 310 308 307 306 305 304 303 305 305 303 303 303 304 302 300 298 297 298 299 299 300 298 293 293
313 313 312 312 311 310 309 307 306 305 305 304 304 303 302 303 303 302 302 301 300 298 297 299 300 298 296 293 293 292 292 292
313 313 312 311 309 308 307 307 305 305 305 305 305 303 302 301 301 301 300 297 296 298 299 298 294 292 292 292 292 292 292 291
312 312 311 308 308 308 306 305 304 304 305 306 303 301 301 299 299 298 297 297 298 295 294 293 291 291 291 292 291 289 289 289
312 312 310 308 308 308 305 305 305 306 305 304 302 300 299 298 297 296 295 295 295 294 294 292 292 292 291 291 291 290 288 288
312 311 308 309 308 306 304 303 304 305 303 301 299 300 297 295 294 294 294 294 295 294 293 292 292 292 292 291 290 288 287 287
311 309 308 309 309 305 306 305 304 302 300 299 300 297 294 294 294 295 295 295 294 293 293 293 292 291 289 288 287 286 286 286
310 308 308 309 307 307 306 303 302 299 298 299 299 297 295 295 296 295 293 294 294 293 292 290 289 288 286 286 285 285 285 285
308 307 307 306 307 304 302 301 299 297 297 297 298 297 296 295 294 292 292 292 291 290 288 287 287 286 285 285 284 284 284 284
304 303 305 306 304 302 300 300 299 299 299 295 294 293 292 292 292 292 291 289 288 287 286 286 286 285 284 284 284 283 283 283

GFSFLT1_850_thetae_012.txt.gz
Theta_e
316 317 317 318 318 317 316 315 313 313 313 312 312 312 312 312 312 312 311 311 310 309 308 308 308 308 307 306 306 305 305 305
316 316 316 315 316 316 315 314 313 313 313 313 313 313 313 313 312 312 311 311 311 310 309 308 307 308 307 307 306 306 305 305
315 316 316 315 315 315 314 314 314 313 313 313 312 312 312 313 313 312 312 311 310 310 310 309 308 308 307 307 307 307 306 306
315 315 315 315 314 314 314 313 313 313 312 312 312 312 313 313 313 311 311 309 309 309 310 309 308 307 307 307 307 307 307 306
315 315 315 315 314 314 313 313 313 312 312 312 313 313 312 312 311 310 309 308 308 308 308 310 309 307 307 307 308 307 306 305
315 315 314 314 313 313 313 313 313 313 313 313 313 312 310 309 309 308 307 306 306 306 306 306 307 307 306 307 307 305 305 304
314 314 313 314 313 313 313 314 313 313 312 312 311 309 308 308 306 305 305 305 305 304 304 304 305 306 305 304 305 304 302 301
313 313 313 313 313 313 313 312 312 311 310 308 307 306 305 304 303 302 302 303 303 303 302 303 305 304 302 301 299 299 299 299
314 314 313 313 312 312 311 310 310 308 306 305 305 303 303 302 301 300 301 302 302 302 302 303 303 301 299 298 298 298 299 298
313 313 312 312 312 311 309 308 307 306 304 304 303 302 302 301 301 300 302 301 301 301 300 300 298 298 299 299 299 297 296 293
313 312 312 312 311 308 307 307 305 304 303 302 302 302 302 301 300 300 300 300 300 298 297 298 298 298 299 297 292 292 292 292
312 312 312 312 310 308 307 305 302 301 302 303 304 302 300 299 300 299 298 297 296 297 298 297 295 293 291 292 292 292 292 290
311 311 312 312 308 308 307 304 304 304 304 304 302 300 299 300 298 296 295 295 295 295 294 293 293 293 292 291 291 291 291 291
311 310 311 310 308 309 309 306 306 305 304 302 300 298 299 298 296 294 294 294 294 294 295 293 293 292 292 292 292 291 290 289
310 310 311 308 307 308 308 307 306 303 301 300 298 297 298 295 294 294 294 294 295 294 295 293 293 292 291 291 290 289 287 286
310 310 307 305 305 305 303 305 303 300 300 298 297 297 296 294 293 294 294 294 294 294 293 294 293 292 290 288 286 286 286 285
308 304 303 303 302 302 304 302 299 299 298 297 297 296 296 296 295 294 293 292 292 292 290 290 289 287 286 285 285 284 284 284
305 304 302 301 303 302 299 298 298 299 299 298 295 293 293 292 292 291 292 292 290 289 288 287 286 285 285 284 284 283 283 283
301 301 304 303 301 298 298 299 298 297 297 295 294 293 292 291 290 289 288 288 287 286 286 285 285 285 284 283 283 282 282 282

GFSFLT1_850_thetae_015.txt.gz
Theta_e
325 319 317 317 318 324 323 318 315 312 313 313 312 313 313 312 312 312 312 312 312 311 310 310 309 309 308 308 308 307 307 306
316 316 316 316 316 318 317 316 313 313 313 313 313 313 312 312 312 313 313 312 312 311 311 310 309 308 308 308 308 308 307 306
315 315 316 315 315 316 315 314 313 312 312 311 311 311 312 312 313 313 312 312 311 310 309 309 309 309 310 308 308 309 308 307
315 315 315 314 314 314 313 312 312 311 311 311 311 312 313 313 313 312 311 309 308 307 307 307 307 307 308 310 308 307 310 308
314 314 313 313 313 312 312 312 312 312 312 312 312 312 311 310 309 308 307 306 305 305 305 305 305 305 305 306 308 307 308 308
313 313 312 312 311 312 312 312 312 312 312 312 311 310 308 306 305 304 304 303 302 301 301 302 302 303 303 304 305 306 306 306
312 312 312 313 313 313 313 312 312 311 310 309 309 308 307 304 303 302 301 301 300 300 301 302 302 302 303 304 304 303 301 300
312 312 312 313 313 312 312 312 311 309 310 309 307 305 303 302 301 300 300 300 300 301 302 301 301 302 302 301 300 298 298 298
313 313 312 312 312 312 311 310 309 310 310 308 303 302 302 301 300 299 299 299 300 301 301 300 300 300 299 298 298 298 298 297
312 312 312 312 312 311 310 308 307 304 301 301 301 302 301 299 299 298 298 300 300 299 299 298 298 297 297 296 295 294 293 292
312 311 311 311 312 311 309 308 305 304 304 303 304 302 300 299 298 298 299 299 298 297 297 296 296 294 293 292 292 292 292 292
311 311 310 311 311 310 308 308 308 306 306 305 303 301 299 298 298 299 298 297 297 295 294 293 293 294 293 293 292 291 291 291
311 310 309 311 311 308 307 308 307 306 305 304 301 299 298 297 297 297 295 296 294 293 294 295 295 293 293 292 292 292 291 291
311 310 310 310 309 306 305 303 302 303 302 299 299 298 297 297 295 294 294 294 294 294 295 295 295 293 292 292 291 290 289 289
311 310 309 307 304 303 302 302 303 301 298 298 298 297 297 296 293 293 293 294 294 294 294 293 291 291 292 291 290 288 287 286
309 307 305 303 302 301 302 302 299 298 297 298 298 297 297 297 296 295 294 294 292 291 291 290 289 289 288 287 286 286 285 285
304 302 301 301 303 303 301 297 297 298 297 298 297 297 295 294 292 291 290 290 290 290 289 288 287 286 286 285 285 284 284 283
300 299 299 302 303 298 297 297 298 297 296 295 293 292 292 291 291 290 288 287 287 287 286 286 286 285 285 284 284 283 282 282
302 299 301 302 298 296 297 297 296 295 293 293 293 292 291 290 289 287 286 286 286 286 285 285 285 284 283 283 282 282 282 281

GFSFLT1_850_thetae_018.txt.gz
Theta_e
324 324 325 318 317 320 325 327 322 317 313 312 312 312 312 313 312 312 313 313 313 312 312 312 313 315 315 314 314 314 314 313
318 316 315 315 316 322 324 322 318 315 313 313 314 314 313 313 313 313 312 312 312 311 310 310 310 313 313 312 314 314 314 314
316 316 315 315 316 316 316 317 316 313 312 311 311 311 312 312 313 312 312 313 310 307 307 307 309 310 311 312 312 313 314 313
316 315 315 315 315 315 315 314 312 312 311 312 313 313 313 312 311 311 310 308 306 304 302 302 302 305 308 309 310 311 312 313
315 315 313 313 313 312 312 312 312 312 312 311 310 310 310 309 309 308 307 305 304 302 301 300 300 303 306 307 308 309 310 310
315 314 314 313 312 312 312 312 312 311 310 310 309 310 310 311 312 311 307 305 304 303 300 299 300 301 303 302 303 306 306 306
314 314 314 314 313 313 312 312 311 310 310 309 308 307 307 307 306 305 304 303 302 302 302 300 301 301 302 302 302 302 302 301
315 315 314 314 314 313 312 312 311 310 309 308 308 305 306 305 304 303 302 301 301 302 300 302 302 301 301 300 300 299 299 299
314 314 314 314 313 313 312 312 311 309 308 305 302 305 305 305 303 302 301 301 300 301 301 301 301 301 300 299 298 297 294 295
314 314 314 313 313 313 312 312 311 310 308 307 306 304 304 303 300 298 299 299 300 300 301 301 299 298 297 297 296 295 292 292
314 314 313 313 312 312 312 310 310 310 309 307 305 305 303 300 298 298 297 299 300 300 301 298 297 296 296 296 295 295 295 294
314 313 313 312 312 311 310 310 309 308 306 305 304 302 300 298 298 297 298 299 299 298 297 296 296 294 295 295 294 294 294 294
313 313 312 312 310 309 308 307 306 305 304 303 302 299 298 298 297 297 297 297 297 296 296 296 295 295 293 293 292 292 291 291
312 312 311 310 308 306 305 304 304 303 301 300 300 299 298 297 297 297 297 297 296 296 295 294 293 291 291 291 291 290 290 290
311 311 309 308 305 304 304 303 301 300 300 300 300 299 298 297 297 296 295 295 295 294 294 293 291 289 289 289 288 288 289 288
309 308 305 303 303 304 302 300 299 300 299 298 298 295 294 295 295 294 294 293 292 291 290 289 288 288 287 286 286 286 287 287
307 304 302 302 303 302 300 299 299 298 297 297 296 295 294 294 293 292 291 290 289 289 288 288 288 287 286 285 285 285 285 286
304 302 301 302 302 300 299 298 297 297 296 295 295 294 293 292 291 289 289 288 288 288 288 287 287 287 286 284 284 284 284 285
302 301 301 302 300 299 298 297 296 296 295 295 293 292 291 290 289 288 288 288 288 287 287 287 286 286 284 284 283 283 284 284

GFSFLT1_850_thetae_024.txt.gz
Theta_e
327 326 325 324 324 325 326 331 333 331 326 324 320 319 318 318 318 317 317 316 316 316 313 312 312 312 312 311 311 312 313 312
323 323 323 323 327 328 330 330 329 325 322 319 318 317 317 316 316 316 316 315 315 313 312 311 311 310 310 311 309 307 309 310
322 322 322 322 321 320 321 320 318 317 317 316 316 316 315 315 315 316 314 314 313 313 312 311 309 309 309 307 307 309 310 311
321 321 321 320 319 318 318 317 317 316 313 316 315 314 315 315 314 314 315 314 314 311 309 307 306 306 306 305 304 306 308 308
320 320 320 319 318 318 317 317 316 316 314 313 313 314 314 314 314 314 313 311 308 307 306 305 305 305 305 304 307 308 308 308
319 319 319 319 318 318 317 316 316 315 315 315 314 314 312 310 310 309 309 307 306 306 305 304 304 304 304 306 306 307 306 304
319 318 319 319 318 317 317 316 316 315 315 313 312 311 310 310 309 308 307 306 305 303 302 302 302 304 305 305 304 302 300 299
318 318 318 317 317 317 317 317 316 315 314 313 313 311 311 309 308 307 306 304 301 300 301 302 303 303 302 301 300 300 298 297
318 317 317 317 317 316 315 316 315 313 312 312 312 311 309 308 307 306 304 301 300 300 302 303 301 300 300 300 299 298 297 297
317 317 316 316 315 315 314 314 313 312 311 309 308 308 307 306 305 303 300 299 299 300 299 298 300 300 299 298 298 297 296 296
316 316 315 315 314 314 314 312 311 310 309 308 306 305 304 303 302 300 300 300 299 299 298 298 298 298 297 297 296 295 294 294
316 315 314 314 313 313 312 310 309 308 306 305 303 302 301 302 301 300 300 299 298 297 297 297 297 297 296 296 294 293 293 292
314 314 313 312 311 311 310 308 307 306 304 302 301 301 301 302 301 298 297 297 297 297 296 296 295 294 293 293 293 292 291 291
313 313 312 311 310 309 307 306 305 304 302 301 300 300 300 299 297 296 296 296 295 295 294 293 292 291 291 291 290 290 290 290
313 312 310 309 308 306 305 305 304 302 301 300 299 299 299 297 296 296 296 295 294 293 292 291 290 290 290 290 290 290 289 288
311 310 308 306 305 304 304 304 302 301 300 299 299 298 298 297 296 295 294 293 291 291 290 290 290 290 290 289 289 288 288 287
309 307 306 305 304 303 303 303 301 300 300 299 298 298 297 296 295 294 293 291 290 290 290 289 289 289 289 288 288 287 287 286
307 306 306 304 303 302 301 302 301 300 299 299 298 298 297 295 294 294 291 291 290 290 289 289 289 288 288 288 287 287 286 284
307 305 303 302 301 300 301 301 301 301 300 299 298 297 296 295 294 293 291 290 290 289 289 289 288 288 287 286 286 285 283 282

GFSFLT1_850_thetae_027.txt.gz
Theta_e
324 324 325 324 325 326 328 331 331 329 327 325 322 319 319 318 318 317 317 317 316 315 314 313 312 312 311 311 310 311 311 310
323 323 323 323 325 323 325 328 329 328 323 320 317 318 317 316 315 316 316 315 314 314 313 312 312 310 308 307 306 305 304 305
322 323 322 323 325 326 326 327 323 318 317 316 316 316 315 316 316 316 314 314 314 313 312 309 308 306 305 305 305 305 303 303
320 319 319 318 318 318 317 316 315 315 314 315 315 314 314 315 314 314 313 312 311 310 307 306 306 305 305 304 304 304 304 307
320 319 318 317 317 317 316 316 316 315 315 315 314 314 313 313 312 310 309 309 308 308 307 306 304 301 303 303 303 304 306 306
319 318 318 318 317 317 316 316 316 315 315 315 314 313 312 311 310 310 309 308 308 307 306 300 298 300 301 303 304 303 303 301
318 318 318 318 317 317 317 316 316 315 314 313 313 312 311 311 311 310 309 307 306 305 298 300 301 302 302 301 301 300 300 299
318 318 318 317 317 317 317 316 316 315 314 312 312 311 310 309 309 307 306 306 303 298 299 301 301 300 300 299 299 299 299 297
318 317 317 316 316 315 315 314 314 313 311 311 310 309 308 307 305 304 303 300 299 299 300 299 298 298 298 299 299 297 297 296
317 316 315 315 315 314 314 314 313 311 310 309 308 306 304 303 302 301 300 299 299 299 298 298 298 298 298 296 297 296 295 295
315 315 314 314 314 313 312 312 310 309 308 307 305 304 302 301 301 301 300 300 299 297 297 296 296 296 295 295 294 293 293 291
314 314 313 313 312 311 311 310 308 307 306 306 305 302 300 300 301 301 301 295 295 296 296 295 294 293 293 293 293 292 292 291
314 313 313 311 310 310 309 307 306 305 305 303 301 300 300 299 299 299 297 294 295 295 295 293 292 291 291 290 290 290 290 290
312 312 311 309 308 307 306 304 304 304 303 302 301 300 299 299 298 298 296 295 295 294 293 292 291 290 290 290 290 290 290 289
312 311 309 306 305 305 304 303 304 303 303 301 300 299 299 298 298 298 296 294 294 293 291 291 290 290 289 289 289 289 288 288
310 308 306 305 305 304 303 303 302 302 301 301 300 299 299 298 298 297 295 293 293 291 290 290 289 289 289 289 289 288 288 287
307 307 306 305 304 303 302 300 301 301 301 301 300 299 298 298 297 296 294 293 291 290 290 289 289 289 289 288 288 287 286 286
306 305 304 303 302 301 301 300 299 298 297 297 299 298 298 298 297 295 294 292 291 290 289 289 289 289 288 288 287 285 285 284
303 303 303 302 302 301 300 298 297 297 296 296 295 296 296 296 295 295 294 291 290 290 290 289 289 289 288 286 285 285 284 283

GFSFLT1_850_thetae_030.txt.gz
Theta_e
326 327 327 328 330 330 331 330 328 328 326 324 322 321 321 319 318 317 317 316 315 314 314 313 313 313 312 312 309 307 304 303
326 326 327 328 329 328 328 326 325 324 324 322 320 317 316 315 316 315 314 314 314 313 313 312 311 310 307 306 306 305 303 303
322 323 322 322 323 318 317 317 316 316 316 316 316 315 315 315 315 315 314 313 313 311 310 309 307 306 305 305 304 302 303 302
318 318 319 318 317 316 315 315 315 315 314 314 314 313 313 313 313 313 312 311 310 309 308 307 306 306 304 300 298 299 302 303
317 317 316 316 316 316 315 315 315 315 315 315 313 312 313 312 312 311 311 310 309 308 308 306 304 298 297 300 302 302 301 301
318 318 318 317 317 317 316 316 315 315 315 314 314 313 312 312 311 311 310 308 307 307 305 299 295 296 300 301 300 299 298 299
318 318 317 317 317 317 317 316 316 316 315 315 314 312 312 311 310 309 308 307 306 303 298 295 297 296 298 298 298 299 299 298
318 318 317 317 317 317 316 315 315 315 314 313 311 311 309 308 307 306 305 303 299 298 298 298 298 297 297 297 298 297 297 297
317 317 317 317 316 315 314 314 314 313 313 312 310 309 308 306 304 303 301 300 300 300 299 298 297 296 296 296 296 296 296 294
317 316 315 314 314 313 312 312 312 311 310 309 307 306 306 305 302 300 300 300 300 297 294 296 295 295 295 294 293 293 293 292
314 314 313 312 312 311 311 310 310 309 308 307 306 306 304 302 300 299 298 298 298 295 294 294 294 294 293 291 291 291 291 291
313 312 312 311 311 310 309 307 307 306 305 305 304 303 303 301 300 299 298 298 298 295 294 294 294 293 292 290 290 290 290 290
312 312 311 311 309 307 306 305 304 304 304 303 303 302 301 300 300 299 298 298 298 294 294 294 293 292 291 290 289 289 289 289
313 312 311 310 307 305 304 303 303 303 302 302 302 300 300 300 299 299 298 297 296 294 294 293 291 290 290 289 289 289 289 288
309 308 306 305 305 304 304 303 301 301 301 301 300 300 300 299 299 298 297 297 295 293 293 291 290 290 289 288 288 288 288 288
307 306 305 305 304 302 302 301 300 300 299 298 298 297 297 296 297 297 297 297 295 293 291 290 289 289 289 289 288 288 288 287
304 304 303 303 302 302 301 301 300 300 298 297 296 296 295 293 293 294 294 294 293 291 290 290 289 289 289 289 288 288 286 285
303 303 301 301 301 300 298 297 296 296 295 295 294 294 293 293 292 292 292 294 294 290 290 289 289 289 288 288 286 285 284 283
301 299 298 298 297 296 296 295 295 295 294 294 293 293 293 293 292 292 293 294 293 290 290 289 289 288 287 286 285 284 283 283

GFSFLT1_850_thetae_033.txt.gz
Theta_e
327 327 327 326 326 329 330 330 328 326 325 326 322 321 321 320 319 319 319 318 317 315 314 313 313 313 311 309 307 307 306 304
329 329 329 329 330 329 330 327 326 326 325 323 322 320 316 315 315 315 315 314 314 313 312 310 309 308 307 307 306 305 305 302
325 327 327 327 325 323 320 320 319 319 317 316 315 314 314 314 314 313 312 311 311 310 309 309 308 308 305 305 303 299 298 300
319 321 321 320 318 315 315 315 315 314 314 314 314 313 312 311 311 311 310 310 310 310 309 307 307 304 297 296 297 299 300 299
317 316 315 316 316 316 315 315 315 315 314 314 313 313 313 313 312 312 311 310 309 308 306 303 297 295 294 295 297 298 299 299
317 317 317 317 316 316 316 316 315 315 315 314 314 314 312 312 311 311 310 309 307 305 301 297 296 296 296 295 296 297 298 298
318 317 317 316 316 316 316 316 315 315 314 314 313 312 311 311 310 309 307 304 302 299 297 296 295 295 295 295 295 296 297 296
318 317 317 317 316 316 316 315 314 314 313 312 312 311 309 308 307 305 300 298 297 297 297 298 293 294 294 295 295 295 294 294
318 317 317 317 316 314 314 313 312 312 311 310 309 308 307 306 303 303 301 299 298 297 298 296 293 294 293 293 293 293 292 291
317 316 316 314 314 313 312 311 310 309 309 308 307 306 304 303 303 300 300 300 298 298 298 297 293 293 294 293 292 291 291 290
314 313 313 313 312 311 310 309 307 307 306 305 304 303 302 302 300 300 299 299 298 298 298 295 293 294 293 292 291 290 290 290
313 312 311 311 309 309 308 306 305 304 303 303 302 302 301 300 300 299 299 299 298 297 295 295 294 293 293 292 290 289 289 289
311 311 311 310 309 307 304 304 303 303 302 301 302 301 300 300 299 298 297 297 298 296 296 296 292 293 291 290 289 288 288 288
311 309 307 305 305 304 304 303 302 301 300 300 300 300 298 298 297 295 293 292 296 296 296 293 292 291 290 289 288 288 288 288
307 305 305 305 304 303 302 301 300 300 300 299 298 297 295 295 294 293 292 292 294 294 294 293 292 290 289 289 289 288 288 288
305 304 303 303 303 302 301 300 300 299 297 296 295 294 294 294 293 293 292 292 292 294 294 291 289 289 289 289 288 288 288 287
303 303 303 302 301 300 299 297 296 295 294 294 294 294 294 294 293 293 291 292 294 293 291 290 289 289 289 289 288 287 286 284
304 302 300 299 297 296 296 295 294 294 294 294 294 294 293 293 293 291 290 290 293 292 291 289 289 288 289 288 286 285 284 283
300 298 297 296 296 296 295 294 294 294 294 294 293 293 293 293 291 290 290 290 291 292 290 289 289 288 287 286 284 283 282 281

GFSFLT1_850_thetae_036.txt.gz
Theta_e
325 325 326 326 325 325 329 327 326 322 323 323 321 320 320 319 318 318 317 317 315 314 313 312 310 309 308 308 307 304 304 303
327 327 325 326 327 328 328 326 325 324 320 318 320 319 315 314 313 313 313 312 310 310 309 309 309 309 308 307 304 300 297 297
327 328 329 329 327 324 321 320 317 316 315 315 314 313 312 311 311 310 310 310 310 310 310 309 308 307 304 299 295 294 294 295
323 323 320 318 315 314 314 314 313 312 311 311 310 311 312 312 312 311 311 311 311 309 307 306 302 297 296 295 294 294 294 294
319 317 315 315 316 315 315 315 314 314 313 314 314 313 312 312 311 311 311 310 307 301 299 297 296 296 295 294 294 294 295 296
315 316 317 316 316 315 316 315 315 315 315 314 314 312 312 311 311 310 308 304 300 298 297 297 297 296 293 293 293 294 295 296
316 317 316 316 316 316 315 315 315 315 314 313 312 311 310 309 308 305 303 301 300 300 298 298 297 297 293 293 293 294 295 294
317 317 316 316 316 316 316 315 314 313 311 311 310 309 308 306 304 303 301 300 300 299 298 298 298 297 295 293 293 293 292 292
317 317 316 316 316 316 314 313 312 310 309 308 307 306 304 303 302 301 300 300 299 299 298 298 297 296 293 293 293 293 292 291
317 317 316 315 314 313 312 311 309 308 307 306 304 303 302 301 300 300 300 299 299 298 298 298 296 294 294 293 293 292 291 290
315 315 314 313 312 311 311 309 307 306 304 303 302 301 301 301 300 299 299 298 297 297 297 297 295 294 294 293 292 291 290 289
313 312 312 311 311 310 308 306 304 303 303 302 301 301 301 300 299 298 297 295 294 293 296 296 295 295 292 291 292 289 288 288
311 310 310 310 309 306 305 304 303 302 302 302 300 300 298 297 296 294 293 293 293 292 293 295 294 294 293 292 289 289 288 288
310 309 307 305 305 304 304 303 302 301 300 299 298 296 295 294 293 293 293 293 292 292 294 294 294 294 292 290 289 288 288 288
308 307 305 305 304 303 302 302 300 299 298 295 294 293 293 293 293 293 293 292 291 292 293 293 293 292 290 289 289 288 288 288
306 304 304 303 303 302 301 300 298 296 294 293 294 294 294 293 292 292 292 291 290 291 292 292 291 289 289 289 288 288 288 286
303 303 303 301 301 300 297 296 294 294 293 294 294 294 293 292 292 292 291 290 290 290 291 291 289 289 289 288 288 287 286 284
303 303 301 299 297 297 296 295 294 294 293 294 294 293 293 292 292 290 290 289 290 290 290 290 289 289 288 288 286 285 284 282
303 300 298 297 296 296 295 295 294 293 293 293 292 292 292 292 290 290 289 289 290 290 290 289 289 288 287 286 285 283 282 281

GFSFLT1_850_thetae_039.txt.gz
Theta_e
323 324 324 324 324 323 325 327 326 325 323 322 322 319 318 316 315 314 314 314 313 311 310 310 309 308 307 305 303 299 296 295
325 326 325 325 325 324 325 327 327 324 322 321 318 317 313 311 311 311 310 310 310 310 310 309 306 303 300 297 296 295 295 294
328 329 329 328 327 327 327 324 315 315 316 315 314 312 311 311 311 311 311 311 310 310 307 302 298 297 297 297 296 295 294 294
324 325 321 317 316 315 314 312 312 312 312 311 311 311 311 311 311 311 311 310 310 306 302 299 297 298 297 296 295 294 294 295
319 316 314 314 314 314 313 314 313 313 313 313 314 313 312 311 311 310 310 308 303 300 300 299 298 298 297 297 295 293 292 297
315 315 315 315 315 315 315 315 315 315 314 314 313 312 311 311 310 309 304 302 300 299 299 298 298 298 298 297 295 293 293 295
315 316 316 315 315 316 315 315 315 315 314 313 311 310 309 307 306 304 302 301 300 300 299 299 298 298 298 297 295 293 292 292
316 316 316 316 316 318 316 315 315 313 311 310 309 308 306 303 302 301 301 300 299 299 299 298 297 298 297 295 294 294 293 292
316 316 316 316 316 316 315 315 313 311 308 308 306 303 302 301 301 300 300 299 299 299 298 297 297 297 296 295 294 294 293 292
316 316 316 316 316 315 313 312 310 308 307 304 303 302 301 301 301 300 299 298 298 298 297 294 292 294 295 295 295 294 293 291
317 317 316 316 313 312 310 308 307 305 303 303 302 302 301 301 300 299 298 296 295 293 293 293 292 294 295 295 294 293 291 290
315 314 314 312 310 309 307 305 304 303 303 302 302 301 300 299 297 295 293 293 293 292 292 291 293 295 295 294 293 292 289 289
312 310 310 309 308 305 304 305 304 303 302 302 300 299 296 294 293 292 293 292 292 292 291 291 294 295 293 292 293 291 289 289
309 309 309 307 306 305 305 303 302 301 300 299 297 294 293 293 293 293 292 291 291 291 290 292 292 292 292 292 290 289 289 288
309 307 306 305 304 304 303 302 300 299 298 295 293 293 293 293 293 292 291 291 291 290 290 291 291 291 291 290 289 289 289 288
307 306 305 304 303 304 301 299 297 296 294 293 293 294 293 293 292 291 291 290 290 290 290 292 291 290 290 289 289 288 288 287
307 304 303 302 301 300 297 297 297 295 293 293 294 294 293 292 291 291 290 290 290 289 290 290 290 290 289 289 288 288 286 285
304 303 303 300 298 297 297 297 295 293 292 293 293 292 291 291 291 290 290 289 289 288 289 289 289 289 288 288 287 286 284 283
303 303 300 297 297 297 296 295 293 292 291 291 291 291 291 290 290 290 290 289 289 289 289 289 289 288 287 286 285 284 283 282

GFSFLT1_850_thetae_042.txt.gz
Theta_e
326 323 323 325 326 326 324 325 327 325 325 323 319 321 319 317 314 312 311 311 311 310 310 310 308 305 303 301 301 302 302 303
326 324 325 325 325 324 324 324 326 325 323 321 320 318 314 311 311 311 311 310 310 310 309 307 304 303 302 302 301 301 300 301
328 328 329 328 328 327 325 327 323 319 319 317 316 313 312 311 311 311 311 310 310 308 305 303 302 301 301 301 300 301 300 300
329 329 330 328 327 327 326 321 313 315 316 314 313 312 312 312 311 311 310 310 308 307 305 302 299 301 301 301 301 300 300 299
325 322 324 324 324 322 319 318 316 312 313 315 315 315 315 313 312 310 309 309 307 304 301 300 301 302 302 301 300 300 299 299
319 318 318 317 315 317 316 315 316 314 314 315 315 315 313 311 310 310 307 305 303 301 301 301 302 302 301 301 300 299 298 298
317 317 317 317 315 315 316 316 315 314 315 314 313 312 311 310 308 307 305 304 303 302 302 302 301 301 300 299 299 298 298 297
318 318 317 317 317 317 316 316 316 315 314 312 310 310 308 306 305 304 303 302 302 302 302 301 300 299 298 298 298 297 297 296
318 318 318 317 317 317 316 316 315 313 310 309 307 306 305 304 304 303 303 302 302 301 301 300 298 297 297 297 297 297 296 295
319 319 318 318 318 317 316 315 313 309 308 306 304 303 301 303 301 302 302 302 300 297 297 296 295 296 296 296 296 296 296 295
319 319 318 317 316 315 314 312 310 307 305 303 303 302 302 300 300 301 299 297 296 295 295 295 295 295 296 296 295 295 294 294
319 318 316 315 313 312 310 308 306 305 303 303 302 302 300 299 298 296 296 295 295 294 294 294 295 295 295 294 295 294 293 293
317 315 313 311 310 309 308 305 305 303 302 301 300 299 298 297 296 295 295 295 294 294 294 294 294 295 293 292 293 293 292 292
314 312 311 310 309 307 305 304 305 302 300 299 299 297 296 296 296 295 295 294 294 293 294 294 294 294 293 292 292 292 291 290
312 311 310 308 306 305 304 306 302 300 298 297 297 296 296 296 295 295 294 294 293 293 293 293 294 293 293 292 291 290 290 290
312 311 309 308 305 303 304 301 299 297 297 296 296 296 295 295 295 294 294 293 293 292 292 292 291 291 290 290 290 290 290 288
311 310 308 306 303 302 300 299 297 297 296 295 295 296 295 294 294 293 293 293 292 292 291 291 290 290 289 289 288 288 287 286
310 308 305 303 301 299 298 297 297 295 294 294 294 293 293 293 293 292 292 292 292 290 290 289 289 289 289 288 287 286 285 284
309 305 302 301 299 298 299 297 295 293 293 293 293 293 293 293 292 292 292 292 290 290 289 289 288 288 288 287 286 285 284 284

GFSFLT1_850_thetae_045.txt.gz
Theta_e
326 327 326 326 329 332 331 330 327 326 324 324 323 319 319 318 314 312 311 311 310 311 312 311 309 307 307 306 305 304 303 303
328 329 329 328 331 332 331 328 325 326 325 319 321 321 317 313 313 311 311 311 311 310 310 308 307 306 305 304 304 303 303 302
330 331 331 332 332 330 330 326 326 327 325 323 320 318 316 315 314 313 312 311 310 308 309 307 306 305 304 304 304 303 302 301
331 332 332 331 329 328 329 329 326 324 320 319 318 317 316 314 314 313 312 310 309 308 307 306 304 303 303 303 303 302 301 301
332 332 332 331 331 329 328 324 321 319 318 317 317 316 316 316 315 314 312 309 308 307 305 304 304 304 303 303 302 302 301 301
329 329 329 327 326 324 321 320 319 319 318 318 318 317 317 315 313 313 311 309 307 305 304 304 303 303 302 302 301 301 300 299
324 323 322 322 323 321 320 320 319 318 318 318 317 317 314 313 312 311 309 307 305 304 304 303 303 302 301 300 299 299 299 299
321 320 319 319 320 320 320 319 318 318 318 318 316 314 312 310 309 307 305 304 304 304 304 302 301 300 299 298 298 298 298 298
320 320 319 319 320 320 319 319 319 318 317 315 313 310 309 307 306 305 305 304 303 303 302 300 298 297 297 297 297 298 298 298
320 320 320 320 320 320 320 319 317 316 314 312 309 308 306 305 305 304 304 304 302 299 298 297 297 296 296 296 297 297 297 297
321 321 321 321 320 321 320 318 316 313 311 309 308 305 304 304 304 303 302 299 298 297 296 296 296 296 296 296 296 296 296 296
322 321 321 321 320 319 319 317 314 310 308 306 304 305 304 303 302 300 298 297 297 296 296 295 295 295 295 296 296 295 295 295
322 322 321 320 318 317 315 313 310 308 306 307 304 304 302 301 299 298 297 297 296 296 295 295 295 295 295 295 294 294 294 294
322 321 320 318 316 315 313 310 308 307 309 304 302 301 300 299 298 298 297 296 296 295 295 295 295 295 295 294 293 293 292 292
321 319 317 316 314 313 310 308 307 306 304 301 300 300 299 298 297 297 296 296 295 295 295 294 294 293 293 293 293 292 291 291
319 317 316 314 312 310 307 306 304 303 301 300 299 298 298 298 297 296 296 295 295 295 294 294 293 292 292 291 291 291 290 290
318 317 315 313 310 307 306 304 303 300 299 298 297 297 297 297 296 295 295 294 294 294 294 293 291 291 291 290 289 289 288 288
317 316 314 312 309 306 304 302 300 299 299 297 296 296 296 295 295 294 294 294 294 293 292 291 291 291 289 289 288 287 287 287
316 314 312 309 306 303 302 300 300 298 296 295 295 295 295 294 294 294 294 293 293 292 291 290 290 290 289 288 287 286 286 286

GFSFLT1_850_thetae_048.txt.gz
Theta_e
322 323 324 330 332 332 330 330 328 324 323 323 324 322 322 318 318 315 311 310 310 313 312 310 309 307 306 305 304 304 303 303
326 326 326 326 331 333 331 329 327 325 324 324 323 319 320 319 314 311 311 312 311 310 311 309 308 307 305 305 304 304 303 302
329 329 328 328 330 333 331 329 327 326 327 324 321 321 317 314 314 312 313 312 311 309 309 308 307 306 303 303 303 303 302 302
330 331 331 331 333 333 330 328 326 326 326 322 319 317 316 316 315 313 313 311 310 309 308 307 306 303 303 303 303 303 302 301
331 332 333 332 331 330 327 328 326 326 322 319 318 317 316 316 315 315 314 312 310 308 307 305 304 304 303 303 302 301 301 301
332 332 332 330 329 327 329 329 324 321 319 318 317 317 317 316 316 314 313 312 310 308 305 305 304 304 303 302 301 300 299 299
331 331 330 331 329 329 325 322 320 320 319 318 318 318 317 315 314 313 311 309 307 305 305 304 304 303 302 301 300 299 298 298
329 329 328 327 325 322 321 320 320 320 319 319 319 318 316 313 312 310 308 306 305 304 304 304 303 301 300 298 297 297 297 298
325 325 323 323 323 322 321 320 319 319 319 319 317 315 312 310 308 307 307 305 305 304 303 302 299 298 297 297 296 296 296 297
322 321 320 321 321 321 321 320 319 319 318 317 314 311 309 308 307 306 305 304 304 301 299 297 297 297 296 296 296 296 297 297
322 321 320 320 321 321 321 320 319 318 316 314 311 309 308 306 305 304 304 303 299 298 297 297 296 296 296 296 296 296 296 296
323 322 321 321 321 321 321 320 318 316 314 311 309 307 306 305 304 303 300 299 298 297 297 296 296 295 295 295 296 296 295 292
323 322 322 322 322 321 321 320 317 314 310 309 306 307 304 303 302 300 298 298 298 297 296 296 295 295 295 295 296 295 293 293
323 323 322 322 322 320 319 318 315 311 309 308 306 304 303 302 300 298 298 298 297 296 296 295 295 294 295 294 292 293 293 293
323 323 323 322 321 318 317 314 311 309 308 305 303 302 301 300 299 298 298 297 296 296 295 295 294 294 293 293 293 292 292 291
322 323 322 320 319 316 315 312 308 307 304 303 301 299 299 299 298 298 297 296 295 295 295 294 294 294 292 292 292 291 290 290
321 321 320 318 317 314 312 308 306 305 302 300 299 299 297 298 298 297 295 295 295 294 294 294 294 291 291 291 290 290 289 287
320 319 319 317 315 312 309 307 305 301 300 300 298 297 297 296 295 295 295 295 294 294 294 294 291 291 290 290 289 289 288 286
318 318 317 315 312 309 307 304 301 300 300 297 296 295 295 295 295 295 294 294 294 293 293 292 291 290 290 289 289 288 287 286

GFSFLT1_850_thetae_051.txt.gz
Theta_e
325 328 328 328 328 326 326 327 327 326 324 321 321 322 321 319 318 318 313 310 309 309 309 310 309 308 307 305 304 303 302 301
324 328 329 328 329 329 329 328 328 325 323 322 323 324 324 321 318 314 310 310 310 310 310 309 308 307 306 303 302 302 301 302
322 324 329 331 331 330 330 329 327 326 324 324 324 321 320 318 316 311 311 311 310 310 309 309 308 307 305 301 300 301 302 301
326 326 329 332 332 332 331 330 327 325 326 324 321 319 317 315 312 312 312 311 311 310 310 308 307 305 302 302 301 301 301 299
327 328 328 331 332 332 330 329 328 325 326 324 318 316 314 313 315 315 314 313 313 310 309 307 305 304 304 303 302 301 301 300
328 329 330 331 332 331 330 329 325 327 325 320 317 316 316 315 316 315 314 313 310 309 307 305 304 304 304 303 303 301 301 299
330 331 332 331 331 331 328 326 325 324 320 319 318 317 317 316 315 314 313 311 310 309 306 305 304 304 304 303 298 298 296 296
331 332 332 329 326 327 329 328 326 321 319 318 317 318 317 316 314 313 312 310 307 305 305 304 304 303 302 296 296 296 295 295
331 331 330 328 326 328 328 324 321 320 319 319 319 318 317 314 312 310 309 308 306 307 305 304 304 300 297 296 296 296 295 296
328 330 329 329 327 322 321 320 320 320 319 319 319 318 317 314 311 309 307 306 305 304 303 302 299 296 295 295 295 295 295 296
325 327 326 325 324 322 321 320 320 319 319 318 318 317 314 309 307 307 307 304 303 303 300 297 296 295 295 295 295 295 296 296
323 323 322 321 321 321 321 320 320 319 319 318 317 314 311 309 307 305 303 302 301 299 297 297 296 295 295 295 295 295 295 295
324 322 320 320 320 321 321 321 320 319 317 315 313 310 308 307 304 302 302 300 298 298 297 296 295 294 295 294 294 293 292 292
325 323 321 321 321 321 321 321 319 316 314 312 309 308 305 303 302 301 299 298 298 298 296 295 294 295 294 294 294 292 292 292
325 323 322 321 321 321 321 320 319 315 311 309 306 304 303 301 300 299 298 298 297 297 295 294 294 294 294 294 293 291 292 291
324 323 322 322 322 320 318 318 316 312 310 306 305 301 299 300 299 298 298 297 297 295 295 294 294 294 294 294 291 291 291 290
321 322 323 322 320 319 317 315 312 309 305 304 301 299 300 299 298 298 296 296 295 295 295 293 294 294 294 292 290 290 290 289
320 321 321 320 318 317 315 311 308 306 304 301 300 300 297 297 295 295 294 294 294 294 294 294 293 293 291 290 290 289 289 288
317 318 318 317 315 313 310 307 305 303 300 300 298 296 295 295 295 293 294 294 294 294 294 293 293 292 290 289 289 289 289 288

GFSFLT1_850_thetae_054.txt.gz
Theta_e
326 326 325 324 322 314 317 321 325 328 327 325 324 326 322 318 319 318 317 315 312 309 309 309 309 308 307 306 303 301 300 300
325 324 325 325 325 319 317 318 322 324 327 325 323 322 320 322 320 318 314 311 309 309 310 309 309 308 307 304 301 300 298 298
324 325 325 325 327 325 324 324 324 326 325 323 322 322 323 323 319 314 311 310 310 310 310 309 308 307 305 303 302 300 299 299
326 326 326 326 327 328 329 328 327 326 324 322 323 324 321 318 315 312 311 311 311 312 311 309 308 306 305 303 303 302 302 300
326 328 328 328 328 329 330 330 329 327 326 324 324 321 319 318 317 312 313 314 313 313 310 308 306 305 305 304 304 303 302 299
323 325 326 329 329 330 330 330 329 327 325 325 321 320 319 316 313 315 315 314 313 310 309 308 306 305 304 304 303 303 299 295
325 326 327 329 329 330 331 330 329 328 326 325 323 317 314 315 315 315 315 314 311 310 310 308 306 305 304 303 303 298 294 293
326 328 328 329 330 331 330 329 327 326 327 324 319 318 316 316 316 315 315 313 311 310 308 305 305 303 302 300 297 294 294 294
327 328 329 330 331 331 329 328 324 326 323 319 319 317 317 316 315 314 313 310 305 304 305 306 304 303 301 297 294 293 293 294
328 329 330 331 330 327 327 326 326 325 319 318 318 317 316 314 311 308 306 306 305 305 304 302 301 301 296 294 293 292 293 294
330 331 331 329 327 326 328 325 324 322 319 318 318 318 318 316 314 311 307 308 306 305 301 302 299 296 294 292 292 293 294 295
329 329 329 328 328 326 324 322 321 320 319 319 319 317 316 311 307 307 307 305 306 300 299 298 297 295 293 292 292 293 293 293
327 327 326 327 326 325 323 322 321 320 320 319 317 314 312 312 310 307 307 301 300 299 298 298 296 295 293 293 293 294 294 293
327 325 325 324 324 323 322 321 320 319 319 317 315 313 311 309 308 305 302 299 298 298 298 296 296 293 293 294 294 294 294 292
326 324 323 322 322 322 322 321 321 319 316 314 313 311 309 308 304 300 299 299 298 297 296 296 294 294 293 294 294 294 292 291
326 324 322 320 320 320 321 321 320 318 316 313 311 309 305 300 300 299 299 298 297 297 295 294 295 294 293 294 294 292 290 290
324 324 322 321 320 321 321 320 317 314 311 310 307 303 300 300 300 300 297 296 296 295 294 294 294 294 294 293 292 290 290 289
320 321 321 321 321 321 320 317 312 308 306 304 300 299 300 299 297 296 297 296 294 294 294 293 294 293 293 292 292 290 289 289
321 322 322 321 320 318 314 309 306 304 302 300 298 298 297 297 299 297 295 294 294 293 293 293 293 293 292 292 291 289 288 288

GFSFLT1_850_thetae_057.txt.gz
Theta_e
325 326 326 329 329 329 328 326 325 325 325 326 328 328 328 326 323 319 319 321 321 319 315 309 309 309 309 307 304 301 299 299
324 326 327 328 329 328 327 326 325 324 326 327 327 327 326 321 318 318 318 317 314 310 309 309 309 309 308 305 303 301 301 301
324 326 328 327 328 327 323 321 321 322 325 326 326 325 322 319 319 319 317 313 310 310 310 310 310 309 307 305 303 303 302 302
324 326 326 326 326 324 319 314 315 322 326 327 326 321 320 322 322 320 316 311 310 310 312 311 309 307 306 306 305 304 303 302
324 325 324 325 325 325 325 320 321 324 327 328 325 321 322 323 322 318 314 310 312 312 312 310 308 307 306 305 304 303 303 300
324 324 324 325 324 325 326 324 325 327 327 326 323 322 324 322 318 315 311 312 312 312 310 308 307 305 305 304 304 303 300 296
322 323 324 325 325 325 326 327 328 328 328 327 326 324 321 319 317 313 313 313 312 310 308 306 305 305 304 303 302 299 297 293
322 325 325 325 325 326 327 328 328 329 328 327 325 323 319 316 314 314 314 314 313 309 307 305 307 304 304 303 302 297 294 292
321 323 324 326 327 327 328 328 329 329 328 326 325 324 318 316 316 316 315 314 311 307 306 308 304 305 301 300 296 294 292 292
321 322 323 325 327 328 329 328 327 327 325 326 326 321 318 317 316 316 314 312 310 308 307 304 302 299 299 296 294 293 292 293
323 324 325 327 327 329 328 328 327 324 325 325 322 319 319 317 317 316 314 310 307 307 305 302 298 298 297 295 294 292 292 292
326 325 325 327 329 330 328 326 325 324 325 322 319 318 317 317 314 312 311 310 309 306 305 302 298 297 296 295 293 292 292 293
328 328 328 329 330 329 327 326 326 325 325 320 318 317 315 313 312 310 309 308 307 305 300 298 297 296 296 294 292 292 293 294
329 329 329 327 327 328 326 327 326 324 323 319 318 317 312 311 309 309 309 307 300 299 298 296 296 296 295 294 292 292 293 293
328 328 328 328 328 327 326 324 322 321 320 318 318 315 312 311 310 308 304 300 299 298 297 297 296 295 294 293 293 293 293 292
326 325 326 326 327 326 322 320 319 319 318 317 315 311 310 309 305 300 299 299 298 299 297 296 295 294 293 293 293 293 292 291
325 325 324 322 323 323 321 320 319 318 317 315 311 308 306 302 299 301 298 297 300 296 296 295 294 293 293 293 293 292 291 291
319 321 322 321 320 319 320 320 318 316 312 310 307 303 300 300 299 299 301 300 297 296 294 294 293 293 292 292 292 291 291 290
319 320 320 320 320 319 319 316 313 310 307 303 300 298 298 297 299 301 299 295 294 294 293 292 292 292 292 292 291 291 290 288

GFSFLT1_850_thetae_060.txt.gz
Theta_e
324 321 322 323 326 327 327 326 322 320 318 325 326 326 327 326 325 327 324 321 322 323 322 322 316 309 308 308 306 303 301 301
324 322 323 322 324 328 329 328 327 325 324 325 326 325 326 327 327 324 319 319 320 321 318 310 309 309 308 307 305 303 302 302
328 326 325 322 324 327 327 328 327 325 324 323 324 325 326 327 325 319 318 318 318 315 310 309 309 309 307 306 304 304 304 303
328 326 325 324 325 325 326 326 326 326 323 324 325 326 326 324 321 319 320 317 314 310 310 310 309 308 306 305 304 304 304 303
325 323 323 325 325 326 327 327 326 325 324 323 324 326 326 324 321 321 319 314 311 311 310 309 308 307 305 305 306 304 303 302
324 322 322 323 325 325 326 326 325 321 321 322 324 327 325 321 321 321 316 312 311 311 310 309 308 307 305 304 303 303 303 302
329 322 322 323 325 325 325 325 324 320 319 321 325 326 322 320 322 321 315 312 312 312 310 309 307 305 305 304 304 303 300 296
329 323 321 322 324 324 324 324 324 323 322 324 327 325 321 322 321 318 315 312 312 313 311 309 308 306 307 303 303 299 296 293
326 323 321 322 323 323 324 324 325 325 324 325 326 324 325 323 318 316 314 313 313 313 310 308 305 307 305 304 304 295 294 293
321 322 321 321 322 323 324 325 325 326 326 326 326 327 325 323 317 315 315 315 315 313 313 309 308 308 305 304 296 295 294 292
321 321 320 320 321 323 325 326 326 327 327 327 327 325 324 323 319 317 316 315 313 312 309 309 308 306 302 298 296 295 293 292
322 321 320 320 322 323 324 326 327 328 328 326 324 324 324 321 320 320 316 314 313 311 310 309 306 301 297 296 295 293 292 292
324 324 323 322 322 324 326 328 329 327 325 324 323 323 322 320 320 319 314 313 309 311 307 304 302 296 296 296 294 293 292 292
326 326 326 326 326 326 327 327 325 326 325 324 323 324 322 320 316 313 312 308 310 306 299 298 297 296 296 295 294 293 293 293
326 326 327 328 327 328 326 325 325 325 325 325 323 317 314 311 309 310 308 305 299 299 300 297 296 296 295 294 293 292 292 292
325 327 328 329 329 328 326 326 326 325 324 323 316 311 309 313 308 306 302 303 300 297 297 298 296 296 294 293 292 292 292 291
321 324 324 324 325 326 325 324 322 319 318 316 311 310 311 307 305 304 300 298 297 301 300 298 296 294 293 292 292 292 292 291
319 321 322 321 320 320 321 320 318 317 314 312 311 308 305 301 299 298 296 299 300 300 296 294 294 294 292 292 292 292 291 291
318 318 319 319 319 318 317 316 315 313 311 308 304 301 299 297 298 299 300 300 298 295 294 293 292 291 291 291 292 292 291 290

GFSFLT1_850_thetae_063.txt.gz
Theta_e
322 322 324 323 323 322 322 325 324 322 319 316 316 320 323 323 322 322 324 324 324 323 324 322 321 320 311 308 307 306 304 303
324 322 323 323 324 326 327 324 324 320 317 317 321 321 322 325 324 325 325 324 321 322 323 322 320 310 308 308 307 306 305 304
327 324 321 322 323 326 327 326 326 324 321 318 322 324 325 325 325 325 324 320 320 322 321 318 310 309 309 307 306 306 304 303
328 325 322 323 321 322 325 326 327 327 325 323 324 324 325 325 325 325 322 319 319 319 316 310 309 309 308 307 306 304 303 302
327 327 327 325 324 322 322 326 327 327 327 326 324 324 324 324 324 324 320 319 319 317 311 310 309 310 308 305 304 304 302 302
327 322 324 324 325 324 324 326 327 327 327 326 325 324 323 324 325 322 319 319 318 314 311 310 310 309 307 306 304 304 304 301
328 328 323 322 323 324 325 325 326 326 326 326 324 324 322 324 324 321 319 320 317 312 311 310 310 309 307 306 306 307 305 303
328 328 329 324 322 322 323 325 326 326 326 325 323 322 324 325 323 320 321 320 316 312 311 311 310 309 307 305 308 307 306 305
326 327 327 328 323 321 322 323 325 324 324 324 324 322 322 325 324 320 322 320 317 314 312 311 309 307 305 307 307 306 303 296
322 324 326 327 328 322 321 321 323 323 324 324 324 323 323 325 323 322 320 318 315 313 311 310 306 307 306 308 304 303 297 295
319 320 321 324 326 323 321 322 322 323 324 324 324 325 325 325 322 323 318 316 314 312 311 310 309 308 307 304 303 297 296 294
322 321 320 320 320 320 320 321 322 324 324 324 325 325 325 325 324 322 320 316 314 313 314 310 309 307 301 301 297 296 294 293
322 323 322 321 321 320 321 322 324 325 326 326 326 323 323 323 322 322 320 316 313 313 310 308 304 301 303 297 296 295 294 293
323 323 324 324 324 323 323 324 325 326 324 324 324 322 322 322 321 320 317 312 310 306 306 300 300 301 297 296 295 294 293 293
323 325 325 325 325 325 325 326 326 325 324 324 324 323 321 320 318 314 310 309 306 305 304 302 301 299 296 295 294 294 293 292
318 324 326 327 327 327 327 326 326 325 324 322 321 320 316 313 310 311 307 306 305 303 301 301 301 299 297 295 294 293 292 292
319 321 323 323 325 325 325 325 324 322 322 320 318 314 309 309 309 307 306 302 300 300 300 299 299 297 295 294 293 293 292 292
320 321 321 321 321 321 321 321 320 317 315 314 310 308 308 307 304 301 299 298 300 300 299 297 294 294 294 293 292 292 292 292
317 318 318 318 318 318 317 316 314 313 310 309 308 307 304 300 299 299 301 300 298 295 294 293 293 292 291 291 290 291 291 291

GFSFLT1_850_thetae_069.txt.gz
Theta_e
327 326 324 321 321 321 323 324 324 323 323 323 320 321 322 322 324 325 324 325 324 324 323 322 323 319 317 316 314 311 311 311
327 326 325 322 321 322 324 326 327 327 326 325 322 321 321 323 325 324 325 325 325 323 323 322 322 319 318 316 316 310 311 311
328 328 325 325 325 326 326 326 327 327 326 324 322 321 322 323 325 324 327 323 321 321 323 321 322 319 317 317 312 312 312 311
327 327 328 326 326 327 327 327 326 327 327 325 323 323 323 324 326 325 326 322 323 323 323 321 320 318 316 314 311 312 312 311
328 326 327 328 328 329 329 328 328 329 327 327 324 323 323 325 326 325 325 324 323 323 322 321 320 319 315 313 312 312 312 312
328 329 327 327 328 328 329 329 330 329 329 328 326 325 325 326 327 326 326 323 324 324 322 319 319 320 314 313 312 312 311 308
327 327 328 328 328 329 329 329 329 329 330 330 329 327 326 326 327 327 326 324 322 324 322 320 318 317 313 313 312 310 309 308
329 327 327 327 329 330 330 329 329 330 330 330 330 330 329 328 328 325 325 323 322 323 323 320 318 314 312 312 310 309 308 308
329 329 328 327 328 330 331 330 330 329 330 331 332 331 331 329 328 326 323 322 322 323 323 319 315 313 312 311 309 307 306 307
326 328 330 330 330 329 331 332 331 330 330 332 332 331 331 329 325 325 323 323 322 323 321 317 313 312 310 310 308 307 309 307
326 326 328 330 331 332 331 332 330 330 331 331 331 331 328 326 324 321 323 323 323 321 316 316 312 310 309 308 308 310 307 303
325 325 327 329 331 332 333 332 332 330 330 331 330 330 327 325 324 324 323 323 322 318 315 312 311 310 308 309 308 305 304 304
326 326 325 325 328 330 331 332 332 331 330 330 329 328 328 326 326 323 322 322 319 318 315 311 309 308 309 308 305 304 304 303
324 326 327 327 327 328 329 330 329 329 329 329 328 327 326 325 326 324 322 320 317 315 311 311 310 308 305 304 304 303 301 300
323 326 327 329 329 329 329 330 329 329 328 328 327 326 325 324 323 320 320 317 313 312 310 309 306 304 304 304 302 301 300 299
322 325 327 329 331 331 329 328 327 326 326 326 324 324 322 321 320 318 315 312 311 309 306 305 304 304 304 302 300 300 299 299
321 324 329 330 330 329 324 323 324 324 324 321 321 320 319 317 315 313 311 310 307 305 304 304 303 302 300 298 296 296 297 297
323 325 328 327 326 322 319 320 321 320 319 318 316 316 315 313 311 310 308 306 305 304 302 300 298 299 299 297 294 293 292 294
323 324 323 322 322 319 316 314 315 314 313 311 312 312 309 309 308 306 305 303 302 301 301 300 298 297 296 294 291 290 290 293

GFSFLT1_850_thetae_072.txt.gz
Theta_e
327 323 322 323 322 318 317 316 315 315 314 315 318 321 320 321 321 322 322 320 321 324 323 323 322 321 320 319 317 315 312 311
326 325 324 321 318 317 316 316 319 322 321 323 323 322 320 322 321 322 322 321 324 321 324 324 323 321 321 320 316 314 311 311
327 324 322 318 317 320 322 323 324 324 322 322 321 319 319 321 323 324 323 324 324 324 324 323 322 321 319 318 318 315 311 311
327 325 322 321 320 321 324 325 326 323 324 325 323 322 321 322 324 325 322 323 328 324 321 323 323 321 319 319 318 315 312 313
327 327 326 323 323 324 325 326 328 327 326 326 324 323 322 323 324 325 324 322 327 325 322 323 322 321 319 319 319 317 312 313
328 327 328 325 325 327 326 326 327 326 325 328 325 323 322 322 323 326 326 323 327 326 324 324 322 321 320 318 318 316 312 313
328 328 327 329 328 327 329 328 328 327 329 326 328 326 324 325 327 326 326 325 322 324 323 323 323 321 320 318 314 313 312 312
329 329 327 327 328 328 329 329 328 329 330 330 327 328 326 326 326 326 326 326 325 321 320 323 323 321 320 316 313 313 312 311
328 328 330 328 327 329 328 329 328 329 329 331 330 327 329 328 326 328 326 326 325 324 322 322 322 321 318 316 313 313 312 310
328 329 327 329 329 329 329 329 329 329 330 330 331 331 329 329 329 329 327 326 324 324 322 322 321 316 315 313 313 312 311 307
326 327 329 328 328 329 329 330 331 330 330 330 330 331 331 330 330 328 325 325 325 322 322 321 319 316 314 314 312 311 309 306
325 326 327 330 330 329 329 330 331 332 331 331 330 332 331 330 330 327 326 324 323 321 321 320 317 315 313 312 309 309 308 306
325 325 325 327 330 332 332 331 332 332 331 331 331 332 329 329 328 327 324 324 322 319 319 318 316 314 312 311 310 308 307 305
324 326 326 325 327 330 331 333 333 333 332 331 330 331 329 327 326 325 323 321 319 318 317 315 312 311 310 309 308 305 305 304
322 325 326 327 327 328 329 331 331 332 331 330 330 330 328 325 323 322 321 320 318 317 315 311 311 310 308 306 305 304 302 300
321 322 327 329 329 329 329 330 330 330 329 329 328 327 326 323 321 320 319 318 315 313 311 309 308 306 305 304 303 301 300 300
322 321 328 331 332 331 330 329 329 328 328 327 326 325 323 320 319 318 316 313 311 310 308 306 306 305 304 302 300 298 298 299
323 323 331 331 331 330 329 326 325 324 324 324 323 320 319 317 315 312 311 310 309 307 305 304 302 299 299 299 297 295 293 292
324 328 329 328 327 326 323 320 320 320 320 319 318 317 314 312 311 310 309 307 305 304 302 301 300 299 298 297 295 294 292 290

GFSFLT1_850_thetae_075.txt.gz
Theta_e
322 322 322 321 321 320 320 319 320 319 318 315 313 312 313 313 315 314 314 315 319 321 319 323 322 322 321 321 320 319 316 313
321 322 322 321 321 320 319 318 317 315 314 313 312 314 315 318 321 320 320 319 314 319 320 322 323 322 322 321 320 318 315 311
324 322 322 321 317 316 315 314 314 314 314 315 315 316 317 320 321 321 322 322 320 318 318 323 323 323 322 321 320 318 316 313
325 322 320 318 316 316 318 319 319 318 316 318 321 322 321 320 322 322 322 322 320 319 320 323 324 323 322 321 320 319 318 316
325 323 318 316 317 319 321 322 322 321 320 321 321 321 321 319 318 321 321 323 322 321 321 323 323 323 322 321 319 319 318 317
324 324 324 318 318 320 322 323 325 324 321 322 324 323 322 321 321 322 324 325 324 323 320 322 323 322 322 320 319 319 318 315
327 326 325 323 322 321 324 323 324 327 326 325 326 325 322 321 323 322 323 324 325 324 322 322 323 323 323 322 321 319 318 315
327 327 325 325 325 324 325 326 326 327 326 326 326 327 324 322 321 322 323 323 325 325 324 322 323 322 323 322 320 318 316 314
328 327 327 327 327 327 326 326 326 326 327 327 326 327 326 324 323 324 326 326 325 324 324 322 321 320 322 322 320 318 314 313
326 328 328 328 327 327 327 327 328 328 326 328 329 328 327 327 324 325 326 326 326 325 324 324 323 321 321 321 319 316 314 313
329 328 328 328 328 327 327 327 327 327 327 327 329 330 328 327 327 327 326 325 325 325 324 324 321 321 321 319 317 316 314 313
323 326 328 329 328 328 327 327 328 328 328 327 329 330 330 329 329 329 329 326 325 325 324 321 321 321 320 318 316 314 313 311
323 322 325 328 329 329 328 328 328 327 327 329 328 329 330 328 329 329 326 325 326 325 321 321 319 319 317 316 315 313 311 310
324 323 320 325 328 329 329 329 329 329 327 330 330 330 330 328 327 326 326 326 324 322 320 318 317 316 315 314 312 310 309 308
324 324 323 320 327 330 330 332 331 331 331 330 330 329 329 328 327 327 325 323 323 321 319 317 316 313 312 311 310 309 307 305
321 324 325 325 324 324 330 333 332 331 331 330 330 330 329 327 327 325 324 322 320 319 317 314 312 311 310 309 307 305 303 302
321 324 326 327 327 325 326 329 330 330 330 329 329 327 327 326 323 322 321 319 317 315 313 311 310 308 307 306 304 303 301 300
321 325 328 328 329 328 328 328 329 329 328 326 325 324 323 321 320 319 317 315 312 311 309 308 306 305 303 301 299 297 296 295
323 325 329 330 330 330 329 328 327 326 325 324 322 321 320 318 317 315 313 312 310 309 306 303 300 300 299 299 298 296 295 293

GFSFLT1_850_thetae_081.txt.gz
Theta_e
323 321 322 323 324 323 323 322 324 322 319 320 318 315 317 320 318 317 316 315 315 315 315 316 316 316 318 320 321 321 320 318
322 321 319 321 321 322 322 321 322 319 317 316 321 319 317 315 319 319 317 318 317 315 319 321 319 317 319 320 321 321 320 319
321 321 322 321 322 323 321 322 322 320 317 317 320 318 316 320 317 315 315 315 316 320 322 321 318 318 320 321 321 321 320 320
322 321 322 321 321 320 320 321 321 320 318 317 318 317 316 318 314 315 316 316 317 316 316 316 317 319 320 321 322 322 321 320
319 322 321 321 321 320 320 320 320 320 319 313 312 314 319 315 314 314 317 316 315 314 316 317 317 316 317 320 322 322 322 321
321 319 318 317 320 320 319 319 320 321 321 319 317 317 319 315 314 314 315 314 314 314 316 319 320 320 318 319 320 322 322 321
324 320 317 316 316 314 314 316 317 318 319 319 319 318 318 318 315 314 314 314 314 313 316 319 319 319 321 320 320 320 321 322
325 324 319 317 316 315 314 313 314 316 315 315 315 315 314 314 314 315 315 314 314 314 316 318 318 321 322 321 321 321 321 322
326 326 324 319 317 316 317 317 316 314 313 314 315 315 315 315 316 316 314 313 313 313 313 316 319 321 323 323 323 322 322 321
326 326 326 323 319 317 317 317 318 318 318 317 317 317 317 318 318 318 318 318 318 319 319 320 320 321 323 323 323 323 322 321
325 326 326 326 324 321 318 317 317 318 320 321 321 321 320 320 320 321 322 323 323 323 322 322 322 322 322 323 323 322 322 321
326 326 326 326 325 325 323 321 319 319 320 322 323 324 325 325 325 325 325 324 325 325 324 323 322 323 321 321 322 322 321 320
325 326 327 326 326 325 325 325 324 322 321 321 321 323 324 325 325 325 326 326 327 324 324 323 319 319 319 320 323 320 319 320
325 326 326 326 325 326 326 326 326 326 326 324 322 322 323 324 325 326 326 326 326 325 324 320 317 317 318 322 320 320 319 318
325 325 325 324 325 325 325 326 326 326 326 326 326 325 325 325 325 326 326 327 327 326 325 322 319 320 323 321 319 318 317 315
322 322 323 323 324 324 324 324 325 326 327 327 326 326 327 328 328 327 327 328 327 326 325 322 322 323 321 319 317 316 315 311
321 322 323 322 322 321 323 323 325 326 326 326 327 327 327 328 327 323 326 325 326 324 323 323 322 320 318 317 315 313 311 309
320 323 323 322 323 322 322 322 324 326 326 327 327 327 327 327 326 325 325 323 323 323 321 321 320 318 316 313 311 309 308 306
321 321 320 321 323 324 324 324 326 327 328 328 329 327 325 324 323 323 322 321 321 319 319 319 316 314 312 310 308 306 304 303

GFSFLT1_850_thetae_084.txt.gz
Theta_e
321 322 322 322 323 324 325 324 323 322 321 320 319 316 318 318 316 320 316 316 317 316 316 316 317 318 319 319 320 320 320 319
321 321 321 322 323 323 322 323 323 322 320 319 317 317 317 316 315 316 318 320 317 316 316 316 316 316 318 319 319 320 320 320
321 322 320 321 321 322 322 322 322 323 321 319 316 314 319 320 321 319 318 317 316 316 316 316 316 317 318 319 320 320 321 320
320 321 320 320 321 321 320 320 321 321 320 318 320 317 317 321 319 316 318 318 318 318 320 320 318 320 321 321 320 320 321 321
319 318 320 321 320 321 319 319 321 321 320 318 317 317 316 320 318 317 320 318 317 318 318 315 315 317 317 317 320 320 321 322
321 320 318 319 320 320 321 321 321 321 320 318 318 319 315 315 316 320 319 318 316 316 315 314 315 316 317 319 316 317 320 321
322 322 318 317 319 320 320 319 320 320 320 320 319 319 317 316 316 318 315 314 315 315 315 315 314 315 318 319 320 321 321 320
324 324 320 317 317 318 318 319 319 320 320 320 318 316 317 316 315 315 314 314 314 315 316 315 314 314 318 320 320 321 322 321
325 324 323 318 317 316 315 315 317 318 319 320 320 320 318 317 317 318 315 314 314 314 315 314 314 315 316 317 320 321 322 323
325 325 325 322 317 316 315 315 314 314 315 316 317 318 318 318 317 317 318 316 314 314 314 314 314 315 318 318 318 319 321 323
325 325 326 325 323 318 316 315 316 316 314 314 314 314 314 314 314 314 314 314 315 315 316 317 319 320 321 321 322 322 321 319
324 325 325 325 325 324 321 318 316 316 317 316 316 316 316 315 315 316 317 317 318 319 320 321 323 324 321 321 322 322 320 318
323 324 325 325 325 326 325 322 320 318 317 317 317 317 319 320 321 322 322 323 324 324 324 324 325 322 319 321 321 322 320 318
323 324 324 324 325 325 325 325 325 323 320 320 319 318 318 320 321 322 323 323 324 324 324 325 325 319 322 320 320 318 318 319
322 323 324 324 324 324 324 324 324 324 324 324 323 323 322 322 322 321 322 322 323 324 325 325 324 324 324 321 317 318 319 320
322 323 322 322 323 323 322 322 324 324 324 325 325 325 324 324 324 323 323 323 324 325 325 323 323 322 323 320 319 318 319 319
320 321 321 321 321 321 322 322 323 324 324 324 325 325 325 325 325 325 326 325 325 323 323 324 324 323 322 321 322 319 318 317
320 319 320 321 321 322 323 322 323 324 325 325 325 325 325 325 326 326 326 325 323 323 323 322 320 320 320 319 319 317 316 313
320 319 320 322 322 322 323 323 323 324 325 325 325 325 325 325 325 323 322 322 322 322 322 321 320 319 318 317 316 312 310 307

GFSFLT1_850_thetae_087.txt.gz
Theta_e
320 322 322 322 324 324 325 325 324 324 323 323 323 323 320 319 320 320 314 315 317 317 317 318 318 319 319 319 319 320 320 319
321 321 321 322 323 323 324 324 324 323 322 321 321 319 318 319 318 316 321 316 317 316 317 317 318 318 319 319 319 319 320 320
320 320 320 321 322 322 323 323 323 322 322 320 320 319 320 320 318 315 319 318 318 316 316 316 317 317 317 318 318 319 320 320
320 322 321 320 321 322 322 322 323 322 321 320 319 316 319 318 318 318 316 316 315 315 316 316 316 315 316 316 317 319 320 320
320 320 319 319 320 320 321 321 321 322 322 321 321 316 317 317 316 316 317 316 316 317 316 316 315 315 318 320 319 321 321 321
320 320 318 320 320 320 319 320 320 321 321 321 320 316 316 317 317 316 317 318 317 316 315 316 318 320 320 317 317 320 318 321
323 321 319 318 319 319 320 319 320 320 321 320 318 316 316 318 320 319 317 316 318 318 319 319 318 315 315 316 317 319 320 320
324 321 322 318 318 319 320 319 320 321 320 320 319 318 317 317 316 320 317 316 318 319 319 318 315 314 315 314 314 316 319 320
324 324 323 319 317 317 317 318 319 320 321 321 320 318 318 315 315 316 315 315 320 318 317 316 315 315 315 315 314 314 318 320
323 325 324 323 317 316 316 316 317 318 319 320 321 320 319 319 317 315 316 316 319 317 315 314 314 314 315 314 315 317 319 319
323 324 325 325 323 317 316 315 315 315 317 319 320 320 319 318 318 318 317 316 316 315 315 314 314 314 314 316 318 318 321 321
323 324 325 325 325 323 318 316 315 315 315 315 315 316 317 318 318 317 317 317 317 317 316 315 315 315 316 318 317 318 321 320
323 323 324 324 325 325 324 319 317 316 315 315 315 315 314 314 314 314 314 314 314 314 314 314 316 317 320 322 322 317 318 321
321 323 323 324 324 325 325 325 323 319 318 317 316 316 315 315 315 315 316 318 319 319 319 320 322 323 324 323 318 318 319 322
320 322 322 323 323 324 324 325 325 324 322 319 318 319 319 317 317 317 318 319 320 320 321 321 322 323 323 323 319 320 322 322
318 319 321 322 323 323 323 324 324 324 324 324 323 320 319 318 318 318 318 319 320 320 321 322 323 323 323 322 322 322 323 321
321 319 320 321 320 321 321 322 323 324 323 323 323 323 322 322 321 320 320 321 322 323 324 324 323 322 322 321 322 321 321 319
321 322 321 321 320 321 321 322 323 323 323 323 323 323 323 323 323 322 323 323 324 324 323 322 323 322 321 320 319 318 318 317
319 320 321 320 319 321 322 322 323 323 323 323 324 324 324 324 323 323 323 323 322 322 322 322 321 319 318 319 318 315 312 310

GFSFLT1_850_thetae_093.txt.gz
Theta_e
331 328 327 326 324 325 326 326 325 324 325 326 327 326 326 326 326 324 319 315 316 320 320 319 318 317 318 316 317 318 318 317
330 328 326 325 324 325 325 326 324 324 325 326 326 325 325 326 324 318 317 317 319 318 315 313 313 314 315 317 318 317 317 316
329 328 325 325 325 324 325 324 324 325 326 325 325 326 325 324 320 317 315 316 316 313 312 313 313 316 318 319 319 320 319 319
329 328 326 325 324 324 324 325 324 324 326 326 325 324 322 318 317 314 313 314 314 314 316 316 319 319 319 319 319 320 319 320
329 328 326 324 325 323 324 324 323 324 324 325 325 324 320 316 314 314 314 315 316 317 318 318 317 317 320 318 318 319 321 322
328 328 326 326 325 326 323 324 324 323 323 324 324 323 320 318 318 316 315 316 314 316 315 318 318 317 318 316 318 318 321 319
329 328 325 326 325 325 325 322 323 322 322 322 322 323 320 318 318 316 316 316 315 314 318 318 319 319 317 317 318 318 317 320
329 328 326 325 325 324 325 323 322 323 323 321 321 321 320 320 316 317 317 315 314 314 318 319 318 317 317 319 319 317 317 319
329 328 327 325 325 324 324 323 323 322 323 323 322 321 322 321 319 318 317 316 318 318 317 317 320 320 320 321 320 317 320 321
329 329 329 326 325 325 325 323 323 323 322 323 322 321 320 320 321 320 318 315 317 319 317 316 317 320 320 321 319 318 320 320
329 329 329 328 326 325 324 323 323 323 323 323 323 322 322 321 321 321 320 318 317 319 318 319 318 317 319 319 319 321 321 320
328 329 329 330 328 326 325 324 323 324 323 323 323 323 322 322 322 322 321 322 322 320 321 320 321 320 320 321 321 320 320 320
328 328 329 329 329 327 325 324 324 323 324 324 323 324 323 323 323 322 322 322 322 321 321 321 321 320 320 320 320 320 320 321
328 328 329 330 330 329 327 325 324 323 324 324 324 324 324 324 323 323 323 322 321 321 321 321 321 321 321 321 321 321 320 321
326 327 328 329 330 330 328 327 325 324 323 324 324 324 324 324 324 323 323 323 323 324 323 322 322 322 322 322 322 322 321 320
323 326 328 329 329 330 330 329 327 325 324 324 324 324 325 324 324 324 324 324 323 323 323 323 322 322 321 321 321 321 322 323
323 323 326 328 329 330 330 329 329 327 326 325 324 324 324 324 324 324 323 323 323 322 322 321 321 322 322 322 323 322 322 322
322 322 322 324 327 329 329 329 329 329 327 326 325 324 324 323 323 323 322 322 322 322 321 321 322 322 322 322 322 322 321 320
321 321 321 322 323 327 329 329 329 329 328 327 326 325 324 324 323 323 323 322 322 322 321 322 322 322 321 321 321 320 317 314

GFSFLT1_850_thetae_096.txt.gz
Theta_e
332 331 329 328 326 326 326 325 326 325 325 325 325 326 325 326 326 325 323 324 325 326 325 325 325 324 324 322 320 319 317 318
332 330 328 327 325 324 326 326 325 324 325 325 326 326 325 326 325 326 323 324 324 324 324 324 325 325 323 321 319 318 317 317
331 329 327 325 328 326 326 325 324 324 325 326 327 326 326 325 326 325 324 323 323 322 322 322 323 323 321 318 318 318 317 317
331 330 327 325 326 327 327 324 324 324 323 324 326 325 324 325 324 324 324 322 318 316 316 320 320 318 316 317 318 319 318 320
331 330 328 325 327 326 325 325 323 324 324 325 324 324 324 325 325 324 316 315 313 316 316 315 314 314 318 319 317 318 320 320
330 329 328 326 325 325 324 325 324 324 324 325 325 325 325 325 323 316 314 314 314 315 313 313 315 318 319 317 318 319 319 318
330 329 328 327 325 325 324 326 324 323 323 324 324 322 323 322 319 316 314 314 314 314 314 316 317 319 318 318 318 318 318 316
330 329 327 327 326 326 324 323 324 324 323 324 323 322 321 319 318 316 314 314 314 314 315 317 317 318 317 318 319 318 317 316
329 329 327 327 327 323 325 323 324 324 323 323 323 322 321 319 317 316 316 314 315 316 316 315 315 318 320 319 318 317 317 317
330 329 327 326 327 324 323 324 322 324 323 322 322 322 321 320 318 315 315 316 315 316 315 314 314 316 318 317 317 317 317 317
330 330 329 326 327 325 323 324 323 322 325 323 322 322 322 321 321 319 318 316 315 316 315 314 314 319 319 318 318 318 318 319
329 330 330 327 327 326 326 325 324 324 324 322 323 323 322 322 321 321 319 316 316 317 316 316 317 317 318 317 318 319 319 317
329 329 330 330 327 326 325 325 324 324 324 324 322 322 322 322 321 321 321 321 319 318 317 319 319 318 318 320 320 319 320 320
328 329 330 331 329 327 326 324 324 325 324 324 324 323 324 322 322 321 322 321 320 320 320 318 320 320 320 320 319 319 320 320
327 328 329 330 331 329 327 326 324 324 325 324 324 324 323 323 323 321 322 323 323 323 322 321 321 322 321 321 320 321 321 322
322 325 327 329 331 331 330 328 326 325 324 325 325 324 323 324 323 323 323 323 322 321 321 321 321 321 321 322 322 322 322 322
319 321 324 327 329 331 330 329 328 327 324 324 325 325 325 324 325 324 323 323 323 323 323 323 323 323 323 323 323 322 321 322
318 320 322 325 328 329 331 330 330 328 327 325 324 325 325 325 325 325 324 324 324 323 323 323 322 322 322 321 320 321 322 321
322 322 321 322 323 328 329 330 330 330 328 326 326 325 325 325 325 325 325 324 324 323 322 321 320 320 320 321 322 322 321 318

GFSFLT1_850_thetae_102.txt.gz
Theta_e
329 331 332 331 329 327 324 322 326 326 326 326 326 327 328 330 327 327 330 328 327 326 322 313 310 310 311 310 312 315 315 318
332 332 331 330 329 327 320 324 326 326 326 325 325 326 326 328 330 327 329 328 328 327 321 312 312 313 317 318 318 317 317 317
332 331 330 330 329 323 321 325 324 325 326 326 325 325 326 326 328 327 329 326 326 327 318 314 315 319 321 321 320 318 317 316
331 330 330 330 329 320 322 324 324 325 324 324 323 325 325 327 327 327 327 325 323 327 319 317 316 318 322 322 321 317 317 317
331 330 330 330 328 320 323 325 324 324 323 324 324 325 325 326 327 328 327 326 326 324 320 320 321 319 321 322 322 317 317 317
330 330 330 329 323 320 323 324 324 322 324 325 323 325 325 326 326 326 327 325 323 322 320 324 324 322 322 323 321 319 318 317
329 330 330 328 320 321 321 323 323 323 323 324 323 323 326 325 326 326 325 324 323 324 322 324 325 324 322 322 320 319 317 317
329 329 329 326 320 320 321 322 322 323 323 324 325 322 323 324 326 326 326 325 323 321 323 324 321 322 319 322 320 318 317 317
329 329 328 325 320 319 320 322 322 323 323 323 323 323 323 323 325 325 325 324 322 323 324 323 322 318 319 320 319 317 317 318
328 329 328 326 322 318 318 320 321 322 322 323 323 323 323 323 323 324 325 324 323 322 318 318 318 318 318 318 316 317 318 317
328 329 329 327 324 321 318 317 318 322 322 322 322 322 323 323 323 324 323 324 322 319 319 320 319 315 315 315 316 317 318 318
327 329 329 328 326 323 320 318 317 321 323 322 322 322 322 322 323 323 323 322 320 322 322 320 319 316 315 315 315 315 318 318
326 327 328 328 327 325 323 320 318 318 322 322 322 322 322 321 322 322 322 322 322 322 321 319 316 315 314 315 316 317 318 318
327 326 326 326 327 326 325 322 317 317 321 322 322 322 322 321 322 322 321 321 321 319 318 316 315 316 314 314 316 315 315 316
320 325 326 326 325 327 326 324 319 317 318 321 322 322 321 322 322 321 321 320 319 318 318 317 317 317 316 314 315 315 315 315
320 319 323 322 326 326 325 325 324 319 319 319 320 322 322 321 322 322 322 321 320 319 318 318 317 317 316 315 315 316 316 316
317 317 318 321 322 326 326 326 324 323 321 319 320 320 320 323 323 322 322 321 321 321 320 320 320 320 319 318 317 317 318 320
316 316 316 317 319 321 323 325 326 325 324 323 322 321 322 321 320 321 322 321 321 321 320 320 320 321 320 319 319 318 319 321
315 314 314 315 317 319 321 327 326 326 326 324 323 323 323 323 322 321 321 322 321 321 320 320 321 321 321 322 321 321 321 321

GFSFLT1_850_thetae_105.txt.gz
Theta_e
319 323 327 330 331 332 329 326 322 323 325 326 327 328 327 327 328 326 325 325 325 328 325 326 327 310 308 311 319 319 320 319
321 326 329 331 332 331 328 324 320 325 324 324 325 328 326 328 328 327 326 326 326 327 327 325 322 306 307 310 317 319 319 319
326 327 330 332 331 329 328 322 322 325 324 325 325 325 328 327 328 329 326 326 326 327 328 327 311 306 307 308 317 319 318 318
323 329 330 332 330 329 328 320 324 325 324 324 325 325 324 327 326 328 327 327 327 328 328 321 309 307 307 309 318 317 316 318
322 327 331 331 330 329 327 320 324 324 325 325 324 325 325 325 326 327 327 328 327 327 327 316 308 308 309 309 314 313 314 317
322 324 329 330 329 329 324 321 324 324 324 323 323 324 323 326 326 326 327 327 327 327 325 313 310 312 315 317 320 317 316 315
323 324 328 330 329 328 321 322 324 324 323 322 325 324 326 324 326 326 326 327 323 322 325 321 313 316 319 320 321 320 317 316
323 325 327 329 329 326 320 323 324 323 323 324 324 325 325 325 325 326 327 324 322 321 323 323 315 317 320 322 321 322 318 317
323 325 326 329 329 325 319 322 323 323 323 323 324 323 323 325 325 326 326 325 323 324 323 321 319 320 320 321 321 320 318 318
326 325 326 329 329 324 318 321 322 322 322 323 323 322 323 323 323 325 326 325 325 323 321 319 319 318 321 319 317 320 319 318
327 326 326 327 328 323 319 321 321 321 322 322 322 323 323 323 322 324 324 325 324 323 324 321 321 323 323 322 321 321 319 317
323 327 327 326 325 323 319 320 321 321 322 323 322 322 322 322 322 321 322 324 324 324 323 322 321 323 322 322 320 320 318 318
325 326 327 327 325 324 322 322 320 319 321 322 322 323 322 322 322 322 320 322 321 322 322 322 323 322 321 319 319 316 315 317
323 325 326 326 326 325 323 322 322 321 320 321 322 322 322 322 321 322 321 321 321 320 320 320 322 320 320 318 317 314 315 315
317 321 323 324 326 326 326 324 322 322 320 321 322 322 322 321 321 321 321 321 321 321 321 321 321 322 321 319 316 314 315 316
316 317 320 322 324 325 326 326 326 324 321 321 321 322 322 322 321 321 321 321 321 321 321 320 318 317 317 316 315 315 314 314
315 315 315 318 321 322 324 325 325 325 325 322 321 320 321 321 321 320 321 321 321 320 319 318 318 317 317 316 315 315 315 314
314 314 313 314 316 320 321 322 324 326 325 325 323 322 321 320 321 321 320 321 321 321 320 319 319 319 318 318 317 317 317 316
313 314 314 313 314 315 319 321 323 325 325 325 326 326 323 322 321 321 323 321 321 321 321 320 320 320 319 320 320 320 319 318

GFSFLT1_850_thetae_108.txt.gz
Theta_e
320 319 318 319 323 327 329 332 332 328 325 323 325 327 327 328 327 326 325 325 326 326 326 325 324 323 324 315 322 322 319 320
321 320 319 319 324 328 330 332 330 325 322 324 329 326 325 327 325 325 327 325 325 326 326 325 325 324 325 315 321 323 319 320
320 320 320 320 326 329 331 331 328 323 322 324 327 326 325 326 327 328 328 326 324 326 325 324 324 324 325 315 317 320 319 320
320 321 320 324 327 330 331 330 327 321 324 324 324 325 324 326 326 328 328 325 326 325 326 326 325 325 325 312 311 320 319 319
319 320 320 323 328 330 331 329 326 321 325 324 324 324 324 324 325 326 326 326 325 326 325 326 326 326 317 309 312 318 319 319
319 319 321 322 328 330 330 328 324 322 324 323 324 324 324 324 324 326 327 327 326 326 325 327 325 325 310 307 312 318 319 319
318 319 321 323 328 330 329 328 322 323 323 323 323 323 323 323 325 326 325 326 325 327 326 327 326 317 308 307 309 318 318 318
318 320 321 323 326 329 329 327 322 322 324 323 321 324 324 325 324 326 323 323 323 326 326 326 319 309 307 307 307 315 318 315
325 323 324 325 325 328 328 327 321 323 323 323 324 322 324 325 324 324 325 326 326 325 326 325 320 308 308 310 310 315 315 316
324 325 325 325 325 327 327 325 321 322 322 322 323 322 323 323 324 325 325 325 326 326 325 324 321 318 312 320 319 319 319 319
325 324 325 324 325 326 326 323 321 322 322 322 322 322 323 323 324 325 326 326 325 324 323 322 321 319 317 315 316 316 319 318
324 323 324 324 324 325 325 322 321 321 322 322 322 322 322 322 322 323 324 325 325 324 323 322 322 323 318 316 316 316 317 318
323 324 324 323 324 324 323 322 322 322 321 322 322 322 322 322 321 322 323 323 324 324 323 324 323 320 319 320 320 318 319 318
319 320 324 324 325 325 325 323 320 320 322 322 322 322 322 321 321 321 320 321 322 323 323 323 322 321 320 319 319 320 321 320
315 318 319 321 324 325 325 325 325 322 321 322 322 322 322 321 320 320 321 320 320 321 321 321 322 322 322 322 323 322 320 319
316 314 315 318 323 324 325 325 325 324 323 322 320 320 321 321 321 320 319 319 320 319 319 319 320 321 322 321 320 319 317 315
316 316 314 313 316 319 322 324 325 325 325 324 323 321 320 320 320 320 320 320 319 319 320 319 320 320 321 321 320 320 317 314
313 313 316 313 313 313 317 320 323 323 324 325 324 323 322 320 320 320 319 320 320 319 320 319 319 319 318 317 316 315 315 314
310 311 311 311 312 314 316 318 321 321 324 323 324 325 324 322 321 320 320 319 318 320 320 320 319 318 317 317 316 316 315 314

GFSFLT1_850_thetae_111.txt.gz
Theta_e
318 319 320 320 318 318 320 326 330 331 333 331 327 327 323 326 328 330 328 328 328 328 326 326 324 324 324 322 319 325 321 322
317 319 319 320 319 318 319 326 330 332 332 328 326 325 325 326 326 327 328 327 328 327 327 326 326 325 324 323 321 324 321 321
317 319 319 320 321 320 320 327 330 332 331 327 323 324 327 326 325 326 327 326 326 326 326 326 325 325 326 322 319 324 321 320
318 318 319 319 321 322 322 327 331 332 330 324 322 325 325 324 325 327 326 327 327 326 325 326 325 326 325 322 319 323 321 320
319 318 318 319 321 324 326 329 331 331 329 321 323 326 325 324 325 326 326 326 328 326 325 325 326 325 325 325 319 322 320 320
320 320 318 318 320 322 327 330 331 330 327 321 324 328 323 324 324 325 325 325 326 325 324 325 326 326 325 324 322 320 322 321
322 318 318 318 319 322 327 331 331 329 323 322 324 325 324 324 322 323 324 326 325 325 325 325 325 325 324 325 324 318 320 322
323 324 321 321 322 323 327 330 330 327 322 323 323 322 322 322 322 323 325 325 325 323 325 324 324 324 325 325 324 315 315 321
324 324 325 324 324 325 326 329 328 325 323 323 323 321 322 323 324 325 325 325 324 323 325 324 326 326 326 323 312 310 314 318
324 324 324 325 324 324 325 328 327 324 323 323 321 322 323 323 324 324 324 323 322 323 322 325 326 325 323 311 309 312 316 318
324 324 325 324 324 322 325 326 326 323 322 322 322 323 321 322 322 323 324 324 322 323 324 326 325 324 311 307 309 310 313 317
322 323 324 323 323 321 322 325 324 321 322 322 321 323 321 322 322 324 324 324 324 325 325 324 323 322 321 310 311 312 312 311
320 322 322 322 322 321 322 325 323 322 321 321 321 323 322 321 321 322 324 324 323 323 325 324 323 322 321 320 313 313 313 315
315 317 319 320 322 322 323 324 322 323 321 320 320 321 321 321 321 320 321 323 323 323 324 324 324 323 322 322 320 316 315 317
316 315 314 317 321 322 323 323 322 321 320 318 317 321 321 320 320 320 320 320 321 322 322 322 322 322 322 321 320 318 316 316
316 315 315 315 315 318 321 321 322 322 322 320 320 319 321 321 320 320 320 320 320 320 321 321 321 321 321 321 322 320 319 317
314 314 314 314 313 313 316 320 321 321 322 323 322 322 320 320 320 319 319 319 320 320 319 319 319 319 320 320 321 320 320 320
310 311 312 314 314 313 313 317 321 322 322 323 323 323 322 320 320 320 319 319 319 319 319 319 319 319 319 319 320 320 319 319
308 307 308 309 309 310 308 311 316 320 322 323 323 323 323 323 321 320 320 320 319 319 319 319 318 319 320 319 319 318 317 316

GFSFLT1_850_thetae_114.txt.gz
Theta_e
320 320 320 322 319 322 331 331 326 328 330 331 332 333 330 326 329 328 328 327 328 328 329 328 328 327 325 325 323 324 324 324
320 319 321 319 319 321 327 331 330 327 330 331 333 332 327 327 327 327 327 327 330 326 327 325 328 326 324 325 324 324 323 324
318 318 322 318 319 321 328 331 333 328 331 331 333 331 326 325 326 325 327 327 327 328 328 326 328 327 325 325 325 324 323 323
318 319 321 324 319 322 328 331 333 329 331 332 332 329 324 324 325 326 326 327 327 328 327 327 326 327 324 324 324 324 323 323
322 321 321 323 323 324 324 331 332 330 331 332 331 329 326 325 326 326 325 326 327 326 327 326 326 326 326 324 325 322 322 322
326 325 322 322 327 324 323 326 329 330 331 332 330 327 327 326 326 326 325 327 326 327 326 327 326 326 326 326 325 322 321 321
327 327 323 325 328 321 323 327 331 331 331 329 328 325 322 326 325 324 325 325 326 326 326 326 325 325 325 325 325 321 321 321
327 328 327 327 328 323 324 332 331 332 331 329 325 322 322 326 324 325 324 324 324 326 325 325 324 324 324 325 326 321 320 321
328 328 329 328 324 323 325 330 329 331 330 328 323 322 323 323 326 324 324 323 324 324 324 325 325 324 324 325 325 323 321 321
328 328 328 327 325 324 326 329 328 329 327 325 323 322 322 325 325 324 325 324 324 325 323 322 323 323 322 324 324 323 321 321
326 327 326 325 323 323 323 324 326 327 324 323 323 323 323 323 324 324 324 325 323 323 321 321 322 322 321 321 321 322 322 320
324 323 323 323 323 322 322 322 324 325 324 323 321 321 323 323 324 323 325 324 323 322 320 321 322 323 323 322 323 321 319 316
322 321 322 322 322 321 321 322 322 324 322 322 321 322 321 323 322 323 324 324 324 322 320 319 321 323 324 320 311 308 307 310
319 318 316 320 321 320 321 321 323 324 321 323 322 323 322 322 322 322 322 324 323 323 322 322 324 323 320 317 309 308 308 309
318 317 314 315 317 319 321 321 322 323 322 323 322 321 320 321 321 322 321 322 323 322 322 323 323 323 321 320 321 320 310 310
317 315 312 310 314 315 316 320 322 322 322 322 320 321 321 321 321 321 321 321 321 321 322 322 323 322 323 322 320 320 319 314
315 313 311 313 312 313 313 314 317 320 322 322 321 323 322 321 320 320 320 321 321 320 321 322 321 321 321 322 322 322 321 319
311 309 307 309 312 311 312 313 313 314 321 321 322 322 322 321 320 320 320 320 320 320 320 320 320 320 320 321 321 320 320 321
309 307 305 305 307 312 312 312 311 312 317 320 320 321 322 322 321 320 319 319 320 320 320 321 320 319 319 320 320 320 319 320

GFSFLT1_850_thetae_117.txt.gz
Theta_e
322 322 322 322 322 323 325 330 337 339 340 338 338 337 331 332 332 329 326 328 329 328 330 329 330 329 329 327 327 325 324 325
322 322 322 322 322 326 328 330 337 339 338 338 336 332 331 332 332 328 324 328 329 328 328 329 329 329 328 327 327 325 324 325
322 322 322 322 323 329 329 332 336 338 337 338 333 334 332 333 331 328 324 324 327 327 327 328 327 329 328 327 326 324 322 325
320 320 321 321 326 330 331 332 335 337 337 337 335 335 334 333 330 326 328 326 327 328 327 328 327 328 326 327 325 325 322 323
318 319 320 322 324 330 332 332 334 336 334 333 336 334 331 331 330 326 328 327 326 326 327 326 327 328 326 326 325 324 322 323
323 323 323 323 323 329 333 333 334 336 334 335 335 336 333 332 330 330 329 328 327 326 327 327 326 327 326 326 326 325 324 323
325 326 328 325 328 332 334 333 335 335 334 336 335 335 333 331 330 330 330 328 327 328 328 327 326 326 327 325 325 325 324 323
327 328 329 327 330 333 329 330 333 334 334 334 335 334 332 331 330 329 329 330 328 327 327 326 326 326 325 325 326 326 324 323
328 329 330 330 331 331 329 331 331 332 334 334 333 333 331 329 328 328 328 326 326 325 325 325 326 325 325 325 325 326 325 322
329 330 330 329 328 327 326 327 329 329 333 332 331 331 329 327 327 327 329 326 325 324 324 324 324 324 324 325 325 325 325 323
328 328 327 327 325 324 325 325 327 327 330 330 330 330 328 327 326 328 326 324 326 324 324 324 323 322 323 323 323 323 324 323
325 324 323 323 324 323 323 323 325 326 329 328 329 328 327 326 327 325 325 324 324 324 324 322 320 319 321 322 322 322 323 323
323 322 321 322 322 322 322 322 323 324 327 326 326 326 326 325 325 325 324 324 324 324 322 321 319 319 319 320 320 321 323 323
321 320 317 318 321 320 320 321 322 324 324 324 324 325 325 324 324 324 323 323 324 324 322 320 320 321 321 319 319 320 321 322
320 318 315 313 314 317 320 320 321 322 322 322 323 323 322 323 324 323 322 322 323 324 323 321 320 321 322 322 318 317 317 318
318 316 314 312 312 313 315 318 320 322 322 321 321 321 322 324 324 322 322 322 323 323 323 322 322 322 323 321 317 311 313 310
315 314 313 312 312 312 312 313 314 318 321 322 323 321 323 323 323 323 322 322 322 322 322 322 322 322 323 320 318 317 312 314
313 312 310 309 309 311 311 312 312 313 318 322 323 323 321 322 323 322 322 322 322 322 322 322 322 322 322 321 321 321 321 320
310 309 308 307 307 308 309 311 311 312 312 315 319 321 322 322 321 322 321 321 321 321 321 321 321 322 322 322 321 321 322 322

GFSFLT1_850_thetae_120.txt.gz
Theta_e
323 323 322 321 321 322 326 329 331 334 340 341 340 338 338 336 334 330 331 330 329 330 331 331 331 330 330 328 327 326 326 325
323 323 323 322 322 322 323 328 332 334 339 341 341 338 339 337 338 332 331 329 327 327 329 330 331 330 330 329 327 327 327 325
324 323 323 323 323 323 323 324 327 334 335 340 341 338 339 338 335 334 333 331 327 327 329 329 329 330 330 329 328 327 326 323
322 322 323 323 323 323 324 327 327 333 338 341 340 338 337 336 337 336 332 328 327 326 329 329 329 329 330 329 328 327 326 321
321 321 322 321 322 323 322 326 329 334 338 340 338 336 334 335 335 334 331 328 324 327 327 328 328 328 328 327 328 327 326 320
318 319 319 320 321 322 322 326 331 334 337 339 336 335 333 335 335 332 331 329 327 326 326 327 327 327 327 324 328 326 326 322
323 323 323 324 326 325 326 330 332 334 335 337 336 334 336 333 333 333 331 328 328 328 326 326 327 327 327 326 326 326 326 324
326 326 328 327 330 332 334 334 334 335 335 336 333 335 336 334 332 331 331 329 329 329 328 327 327 327 326 327 326 326 326 325
329 330 330 330 333 334 333 331 332 336 337 335 335 333 335 334 332 331 330 328 328 328 329 328 329 327 326 326 326 326 325 326
330 331 330 330 330 330 329 326 329 333 333 332 334 335 333 332 331 331 329 329 328 327 327 327 327 326 326 325 326 326 326 326
329 328 326 326 325 325 324 325 326 328 329 332 334 333 332 330 329 328 327 327 327 327 325 324 324 324 324 324 325 324 325 325
325 324 322 322 323 323 323 323 324 325 327 330 332 331 330 329 327 326 326 327 327 324 325 324 324 324 324 323 324 324 324 324
323 322 319 321 322 322 321 323 323 325 326 329 331 330 329 327 326 325 326 325 324 324 324 323 323 321 322 321 322 322 323 324
320 317 316 318 319 320 321 322 323 324 325 327 329 327 326 325 324 325 325 325 324 324 323 323 321 321 321 320 320 321 322 323
319 317 315 313 315 318 318 320 321 323 324 325 326 326 324 324 324 323 324 323 323 324 323 322 321 320 321 319 319 319 320 322
318 316 314 312 313 313 315 317 319 321 322 323 323 323 323 323 323 325 324 322 322 323 322 321 320 320 321 321 319 319 320 321
315 314 313 312 311 312 312 313 316 317 319 321 321 322 322 323 323 325 323 322 322 324 322 321 320 320 321 321 318 319 319 319
313 311 310 309 310 309 311 312 312 313 314 317 320 322 323 324 324 324 324 322 321 321 321 322 321 321 321 321 320 318 317 317
309 308 307 306 306 306 306 308 311 311 312 312 313 319 321 320 322 324 322 322 322 322 321 321 321 321 321 321 320 318 313 313

GFSFLT1_850_thetae_123.txt.gz
Theta_e
321 321 320 320 319 319 322 326 328 332 331 333 336 338 337 335 336 335 331 332 333 333 332 331 331 330 330 329 327 326 326 325
322 322 321 321 321 320 321 325 330 333 334 333 337 335 339 336 334 336 334 333 335 332 331 332 332 332 330 329 329 327 326 326
322 322 323 323 323 321 322 323 329 331 331 331 333 332 336 336 335 336 336 334 336 333 330 330 332 331 330 330 329 328 326 326
317 321 323 323 323 322 322 324 328 329 333 335 338 339 340 339 336 337 336 335 338 333 329 329 330 329 329 330 330 328 327 326
315 316 321 323 322 323 324 324 327 329 331 335 335 334 337 339 337 335 334 333 333 334 330 329 329 330 329 328 329 329 327 327
314 315 319 322 322 322 323 324 325 327 331 332 333 336 338 338 335 334 333 332 334 333 330 329 329 329 328 328 328 329 328 327
315 316 318 321 321 322 325 324 324 327 331 332 335 336 338 335 334 332 332 333 333 332 330 329 327 329 328 328 328 328 327 327
325 326 328 329 327 326 326 328 330 331 332 332 335 337 339 335 333 332 333 332 331 328 329 327 327 327 328 327 328 327 328 327
330 331 333 333 333 333 332 332 334 335 334 333 335 336 336 334 334 333 332 332 330 328 329 328 327 329 328 329 327 327 326 325
330 330 330 330 331 331 331 331 331 332 335 336 336 334 333 335 336 333 331 331 330 328 327 327 327 326 326 327 326 326 326 325
328 327 326 325 326 326 326 325 324 330 334 336 334 334 334 334 334 332 330 330 329 327 326 327 325 326 326 327 326 326 326 325
324 322 322 324 323 323 322 323 324 325 327 329 330 333 334 334 333 332 330 329 327 327 326 327 326 326 324 325 325 325 325 325
321 320 320 320 321 321 321 321 323 324 325 326 328 333 333 333 331 329 327 326 325 326 326 325 324 324 323 324 323 323 324 323
316 318 318 318 319 319 320 321 322 323 325 326 328 329 331 330 329 327 326 325 324 325 324 323 324 323 323 322 321 322 323 323
314 313 313 314 316 318 319 320 321 323 324 325 326 328 328 329 327 325 324 324 324 324 323 323 322 321 320 321 320 320 320 321
314 312 311 311 312 313 315 317 319 321 322 323 324 324 324 324 324 324 323 322 323 321 322 320 320 320 320 321 320 319 319 320
312 311 310 309 309 310 312 313 315 317 320 321 322 322 322 323 322 323 324 323 322 321 323 321 320 319 319 320 320 319 320 320
307 307 307 306 306 306 308 311 312 313 314 316 319 321 322 323 324 324 323 323 322 321 322 321 321 320 320 320 320 319 319 320
304 304 304 304 304 304 304 305 309 311 312 312 313 316 319 322 324 323 324 324 323 321 321 321 321 321 321 321 321 319 318 318

GFSFLT1_850_thetae_126.txt.gz
Theta_e
319 320 320 320 321 320 319 323 327 334 335 337 336 336 334 331 331 336 336 336 335 333 333 331 332 331 330 329 328 326 324 326
318 319 320 320 321 321 320 319 321 330 338 337 339 336 335 335 334 335 338 338 335 334 332 332 332 331 330 330 330 327 326 326
314 316 318 322 322 321 321 319 319 323 332 330 336 334 333 335 337 336 338 338 336 334 333 332 332 331 331 331 330 328 327 326
314 314 314 319 322 322 321 321 320 320 326 335 339 337 337 338 339 338 336 335 334 334 335 335 333 332 331 331 331 329 326 326
312 313 314 315 321 323 322 321 321 322 328 333 335 334 333 332 334 336 335 334 333 333 334 334 335 332 333 331 330 329 328 327
312 313 313 314 318 323 323 322 322 325 328 331 333 335 330 332 334 336 337 334 333 333 332 332 331 331 331 330 328 329 329 329
312 312 317 317 314 321 322 323 325 326 329 334 332 331 331 334 336 337 337 334 333 332 331 331 330 329 329 328 329 327 328 327
315 316 315 316 315 317 326 327 327 333 336 334 331 331 332 333 335 337 334 332 331 330 330 330 329 328 327 327 327 328 326 327
327 327 329 329 329 328 328 328 330 334 334 332 333 335 336 336 337 337 333 332 331 330 330 329 328 327 326 326 327 327 327 326
328 329 330 330 332 332 332 332 333 334 335 337 337 335 336 335 339 337 334 331 332 331 329 328 326 326 325 325 326 326 326 326
325 326 327 327 326 327 327 328 328 332 334 335 336 336 334 334 335 334 334 332 331 330 328 327 326 325 326 325 325 325 326 326
320 321 322 322 322 321 322 322 323 326 331 333 335 334 333 333 333 334 335 333 330 330 328 327 325 326 326 325 325 325 325 326
318 319 320 320 320 320 321 321 322 324 325 327 330 331 334 333 334 333 332 331 330 328 327 326 325 325 326 324 325 325 326 324
317 318 316 319 319 319 320 321 321 322 323 324 326 327 331 330 331 332 331 329 328 326 325 325 324 325 326 325 323 324 324 323
314 313 313 315 316 317 319 320 320 322 324 324 325 326 327 329 327 329 328 328 326 326 324 323 323 322 322 321 321 321 322 322
311 310 311 310 311 313 315 317 318 320 322 323 324 324 326 326 326 328 327 326 324 323 323 323 322 321 320 319 320 320 320 319
308 307 307 306 306 310 311 312 314 316 318 321 322 322 323 324 325 325 325 324 322 322 322 321 321 320 320 319 319 320 318 319
302 303 304 303 303 303 305 310 312 313 314 316 318 320 321 322 322 323 324 324 324 322 321 320 321 320 320 319 319 320 319 319
302 301 301 300 299 300 301 304 308 311 312 312 313 315 318 320 322 323 323 323 325 323 321 320 321 321 320 319 320 320 319 319

GFSFLT1_850_thetae_129.txt.gz
Theta_e
310 312 315 316 318 320 320 322 332 335 334 335 335 333 330 328 326 325 324 328 330 331 333 330 329 331 330 330 326 323 324 323
308 309 312 317 318 319 320 320 320 330 337 337 337 335 333 332 330 328 328 330 332 332 333 333 330 329 330 331 329 324 324 323
307 308 310 314 314 316 318 319 320 320 327 331 336 335 336 334 333 332 333 334 335 334 334 334 332 329 330 331 330 328 326 325
307 308 309 310 316 314 315 318 319 320 320 327 338 339 339 337 336 335 333 335 336 336 334 334 334 331 329 330 330 329 329 327
307 308 309 310 312 314 313 315 319 319 320 325 329 331 335 331 329 333 335 337 339 336 335 334 332 331 330 329 330 329 329 329
308 309 309 310 312 313 313 316 319 319 320 321 322 331 334 334 332 332 336 338 338 335 333 333 332 332 331 329 329 329 328 328
308 309 310 311 315 317 315 317 320 321 321 321 325 330 333 336 333 332 336 338 337 334 332 332 333 332 332 330 328 328 328 328
308 309 310 310 316 316 317 318 324 326 326 325 328 332 332 335 333 333 333 336 336 334 332 332 332 331 331 329 328 327 327 327
323 322 316 312 314 317 320 319 326 336 334 333 335 336 336 335 334 332 333 335 336 333 332 332 331 330 330 329 328 327 326 327
321 321 323 325 324 321 322 328 333 334 328 330 332 335 334 330 331 335 335 336 334 332 331 330 329 329 329 328 327 326 325 325
318 320 322 325 327 330 334 335 336 335 331 332 333 336 333 334 335 336 336 337 334 332 330 330 329 328 328 327 326 325 325 325
316 315 318 320 322 323 325 328 332 333 334 334 333 336 336 336 336 335 336 337 334 332 330 330 328 326 325 325 324 324 324 324
311 311 318 318 318 320 321 322 323 326 328 331 332 334 333 333 333 330 334 332 334 333 330 328 327 326 325 324 325 325 325 324
309 310 314 318 315 317 320 320 322 324 324 325 327 329 331 331 332 331 332 330 333 331 329 329 327 327 325 324 324 324 323 324
307 305 306 314 311 311 317 319 320 322 323 323 324 325 327 329 330 330 329 330 330 331 329 327 326 325 323 323 323 323 322 322
302 303 302 306 305 308 311 314 317 319 321 321 323 324 326 326 327 328 328 330 329 328 326 325 324 323 322 321 321 320 319 319
299 300 300 301 301 301 306 309 311 314 317 319 320 322 323 325 326 326 327 326 327 325 324 323 322 322 321 320 320 319 318 319
297 298 299 299 298 299 301 305 308 310 312 314 315 318 320 322 324 324 325 325 326 323 323 322 321 320 320 320 319 318 319 319
295 296 297 296 297 299 298 300 303 306 309 310 311 313 316 318 320 322 323 323 325 324 323 322 320 321 320 319 318 317 319 317

GFSFLT1_850_thetae_132.txt.gz
Theta_e
304 305 306 307 309 312 316 317 319 320 331 334 336 331 325 323 323 323 322 322 323 324 327 327 328 329 330 328 330 327 325 325
304 304 305 306 308 309 312 316 317 320 330 336 337 336 331 328 325 324 323 323 323 325 327 329 328 329 330 329 329 327 325 324
304 304 305 306 307 308 311 317 318 319 324 325 335 336 334 332 328 327 326 324 324 327 329 330 330 328 330 330 329 329 325 323
304 304 304 304 306 308 309 310 315 318 318 326 336 338 337 337 334 330 329 328 326 328 331 331 331 330 327 329 330 330 329 325
304 304 304 304 306 308 309 310 312 314 318 321 325 327 336 334 334 333 332 331 330 331 333 334 334 332 332 328 330 330 330 328
305 305 305 305 306 308 309 310 312 313 315 318 322 326 325 328 335 335 334 333 332 334 335 337 336 333 333 331 330 330 330 329
305 305 306 305 307 308 309 313 315 316 319 320 324 329 324 330 334 337 335 333 331 334 335 335 334 332 332 331 329 328 328 328
317 314 309 306 308 308 311 314 315 316 318 324 329 330 327 324 329 335 334 331 331 331 335 337 333 331 332 331 330 329 328 327
317 319 322 318 311 309 315 315 316 317 321 329 335 332 332 333 334 334 334 330 328 331 336 335 332 330 332 331 331 331 330 328
314 314 317 318 324 322 317 316 319 320 326 332 336 334 334 337 336 336 336 332 329 331 335 334 331 331 331 331 330 330 329 327
311 311 312 318 322 324 326 323 322 321 329 332 334 335 335 334 333 334 334 333 332 334 334 333 332 331 331 331 330 330 329 327
308 307 307 312 321 324 326 322 325 330 332 328 328 330 331 330 330 330 330 332 334 334 333 333 329 329 329 329 329 329 329 326
302 304 303 307 316 318 322 325 326 327 328 328 323 324 323 323 328 329 331 332 334 333 331 331 329 329 329 329 327 326 325 324
300 300 298 300 311 315 317 321 322 323 326 327 328 327 326 327 328 329 330 330 331 332 332 332 329 327 326 325 325 323 323 324
297 297 296 296 302 308 311 316 319 320 322 324 326 328 328 328 327 329 329 329 330 330 331 331 328 327 327 326 326 324 323 324
295 294 295 296 298 304 306 308 308 312 318 320 321 324 324 327 328 329 329 329 329 328 329 329 329 328 326 325 324 323 322 321
293 293 294 295 295 297 300 303 305 309 313 314 316 319 322 323 324 326 327 327 327 327 328 328 328 326 325 324 322 320 320 319
292 292 293 294 294 294 296 299 302 305 307 311 313 315 317 320 321 324 325 326 326 326 326 326 325 324 323 322 321 319 319 318
291 291 293 294 293 293 295 297 298 301 302 304 307 310 313 315 318 319 322 324 324 324 324 324 323 322 321 321 319 319 318 316